MAS135 WMKK-NZAA

Flight info

Callsign MAS135
Flight time 9h 20m
Altitude 39000
Route RUSBU2D RUSBU Y511 TOPOR A464 ARAMA P501 ANITO B470 PKP L511 SBR M766 BLI G326 ARG/N0467F370 G326 BN J208 SCOTT A464 RIGMI/N0456F390 A464 UPLAR BASIV9B
Aircraft A339/H-V/N

Departure

Time 2026-05-06 03:37
Airport Kuala Lumpur International Airport (WMKK)

Arrival

Time 2026-05-06 12:57
Airport Auckland International Airport (NZAA)
Time Latitude Longitude Altitude Speed Heading
2026-05-06 03:18 2.74638 101.71558 78 ft 0 kts 236°
2026-05-06 03:30 2.74651 101.71577 67 ft 4 kts 236°
2026-05-06 03:30 2.74665 101.71599 68 ft 4 kts 233°
2026-05-06 03:30 2.74672 101.71614 67 ft 4 kts 178°
2026-05-06 03:31 2.74687 101.71610 67 ft 4 kts 139°
2026-05-06 03:31 2.74706 101.71593 67 ft 2 kts 146°
2026-05-06 03:31 2.74708 101.71592 67 ft 0 kts 146°
2026-05-06 03:33 2.74702 101.71596 67 ft 6 kts 146°
2026-05-06 03:34 2.74620 101.71651 69 ft 21 kts 146°
2026-05-06 03:34 2.74551 101.71753 73 ft 19 kts 64°
2026-05-06 03:34 2.74622 101.71875 69 ft 21 kts 59°
2026-05-06 03:34 2.74688 101.71980 87 ft 17 kts 55°
2026-05-06 03:35 2.74755 101.72072 87 ft 17 kts 56°
2026-05-06 03:35 2.74806 101.72147 88 ft 13 kts 56°
2026-05-06 03:35 2.74871 101.72181 86 ft 10 kts 345°
2026-05-06 03:35 2.74938 101.72137 87 ft 20 kts 327°
2026-05-06 03:36 2.75262 101.71921 85 ft 93 kts 326°
2026-05-06 03:36 2.75986 101.71435 81 ft 155 kts 326°
2026-05-06 03:36 2.77018 101.70743 149 ft 196 kts 326°
2026-05-06 03:36 2.78160 101.69928 590 ft 209 kts 323°
2026-05-06 03:37 2.79402 101.69050 975 ft 229 kts 325°
2026-05-06 03:37 2.80852 101.68245 1303 ft 249 kts 338°
2026-05-06 03:37 2.82559 101.67682 1721 ft 265 kts 345°
2026-05-06 03:37 2.84338 101.67188 2396 ft 266 kts 345°
2026-05-06 03:38 2.86121 101.66655 3058 ft 269 kts 343°
2026-05-06 03:38 2.87910 101.66066 3652 ft 272 kts 342°
2026-05-06 03:38 2.89770 101.65739 4178 ft 273 kts
2026-05-06 03:38 2.91596 101.66203 4768 ft 272 kts 28°
2026-05-06 03:39 2.93050 101.67396 5286 ft 274 kts 53°
2026-05-06 03:39 2.93922 101.69085 5783 ft 275 kts 73°
2026-05-06 03:39 2.94183 101.70979 6274 ft 277 kts 89°
2026-05-06 03:39 2.94148 101.72918 6719 ft 279 kts 96°
2026-05-06 03:40 2.93735 101.74813 7154 ft 281 kts 111°
2026-05-06 03:40 2.92826 101.76540 7604 ft 282 kts 125°
2026-05-06 03:40 2.91593 101.78071 8043 ft 284 kts 133°
2026-05-06 03:40 2.90203 101.79478 8510 ft 285 kts 137°
2026-05-06 03:41 2.88746 101.80836 8982 ft 288 kts 138°
2026-05-06 03:41 2.87261 101.82194 9452 ft 290 kts 138°
2026-05-06 03:41 2.85771 101.83568 9898 ft 292 kts 137°
2026-05-06 03:41 2.84277 101.84960 10228 ft 299 kts 137°
2026-05-06 03:42 2.82741 101.86404 10350 ft 313 kts 137°
2026-05-06 03:42 2.81118 101.87935 10470 ft 327 kts 137°
2026-05-06 03:42 2.79428 101.89527 10590 ft 340 kts 137°
2026-05-06 03:42 2.77697 101.91157 10938 ft 343 kts 136°
2026-05-06 03:43 2.75951 101.92801 11354 ft 345 kts 136°
2026-05-06 03:43 2.74196 101.94453 11773 ft 347 kts 136°
2026-05-06 03:43 2.72436 101.96110 12186 ft 349 kts 136°
2026-05-06 03:43 2.70663 101.97780 12604 ft 351 kts 136°
2026-05-06 03:44 2.68881 101.99457 13014 ft 353 kts 136°
2026-05-06 03:44 2.67089 102.01143 13426 ft 355 kts 136°
2026-05-06 03:44 2.65285 102.02840 13826 ft 357 kts 136°
2026-05-06 03:44 2.63472 102.04545 14173 ft 359 kts 136°
2026-05-06 03:45 2.61652 102.06259 14541 ft 360 kts 136°
2026-05-06 03:45 2.59819 102.07984 14893 ft 363 kts 136°
2026-05-06 03:45 2.57928 102.09660 15220 ft 365 kts 141°
2026-05-06 03:45 2.55881 102.11176 15577 ft 367 kts 142°
2026-05-06 03:46 2.53822 102.12700 15920 ft 369 kts 142°
2026-05-06 03:46 2.51759 102.14236 16246 ft 371 kts 142°
2026-05-06 03:46 2.49682 102.15786 16586 ft 373 kts 142°
2026-05-06 03:46 2.47599 102.17343 16922 ft 375 kts 142°
2026-05-06 03:47 2.45506 102.18908 17230 ft 377 kts 142°
2026-05-06 03:47 2.43399 102.20482 17552 ft 379 kts 142°
2026-05-06 03:47 2.41278 102.22067 17872 ft 381 kts 142°
2026-05-06 03:47 2.39177 102.23636 18197 ft 383 kts 142°
2026-05-06 03:48 2.37035 102.25235 18481 ft 385 kts 142°
2026-05-06 03:48 2.34884 102.26841 18762 ft 387 kts 142°
2026-05-06 03:48 2.32725 102.28452 19053 ft 388 kts 142°
2026-05-06 03:48 2.30557 102.30071 19344 ft 390 kts 142°
2026-05-06 03:49 2.28378 102.31698 19633 ft 392 kts 142°
2026-05-06 03:49 2.26185 102.33335 19916 ft 394 kts 142°
2026-05-06 03:49 2.23982 102.34980 20198 ft 395 kts 142°
2026-05-06 03:49 2.21772 102.36628 20491 ft 397 kts 142°
2026-05-06 03:50 2.19552 102.38284 20788 ft 399 kts 142°
2026-05-06 03:50 2.17320 102.39949 21077 ft 401 kts 142°
2026-05-06 03:50 2.15078 102.41622 21367 ft 403 kts 142°
2026-05-06 03:50 2.12823 102.43304 21658 ft 405 kts 142°
2026-05-06 03:51 2.10562 102.44991 21947 ft 407 kts 142°
2026-05-06 03:51 2.08289 102.46688 22213 ft 409 kts 142°
2026-05-06 03:51 2.06005 102.48392 22521 ft 411 kts 142°
2026-05-06 03:51 2.03738 102.50135 22787 ft 412 kts 138°
2026-05-06 03:52 2.01667 102.52120 23064 ft 413 kts 131°
2026-05-06 03:52 1.99856 102.54344 23342 ft 413 kts 124°
2026-05-06 03:52 1.98144 102.56668 23584 ft 415 kts 125°
2026-05-06 03:52 1.96410 102.58989 23843 ft 417 kts 126°
2026-05-06 03:53 1.94664 102.61309 24087 ft 418 kts 126°
2026-05-06 03:53 1.92911 102.63635 24337 ft 420 kts 126°
2026-05-06 03:53 1.91171 102.65942 24586 ft 422 kts 126°
2026-05-06 03:53 1.89404 102.68286 24835 ft 423 kts 126°
2026-05-06 03:54 1.87625 102.70646 25077 ft 425 kts 126°
2026-05-06 03:54 1.85844 102.73010 25317 ft 426 kts 126°
2026-05-06 03:54 1.84057 102.75382 25566 ft 428 kts 126°
2026-05-06 03:54 1.82262 102.77764 25792 ft 429 kts 126°
2026-05-06 03:55 1.80464 102.80150 26032 ft 431 kts 126°
2026-05-06 03:55 1.78654 102.82553 26252 ft 433 kts 126°
2026-05-06 03:55 1.76840 102.84960 26487 ft 434 kts 126°
2026-05-06 03:55 1.75017 102.87380 26721 ft 436 kts 126°
2026-05-06 03:56 1.73298 102.89876 26933 ft 437 kts 120°
2026-05-06 03:56 1.71845 102.92548 27146 ft 438 kts 116°
2026-05-06 03:56 1.70427 102.95245 27371 ft 439 kts 117°
2026-05-06 03:56 1.68994 102.97947 27584 ft 441 kts 117°
2026-05-06 03:57 1.67550 103.00657 27810 ft 443 kts 117°
2026-05-06 03:57 1.66098 103.03379 28022 ft 444 kts 117°
2026-05-06 03:57 1.64640 103.06109 28259 ft 446 kts 117°
2026-05-06 03:57 1.63168 103.08793 28433 ft 448 kts 121°
2026-05-06 03:58 1.61293 103.11336 28640 ft 450 kts 130°
2026-05-06 03:58 1.59040 103.13527 28852 ft 453 kts 139°
2026-05-06 03:58 1.56496 103.15331 29047 ft 456 kts 146°
2026-05-06 03:58 1.53785 103.17074 29250 ft 458 kts 146°
2026-05-06 03:59 1.51151 103.18792 29452 ft 459 kts 145°
2026-05-06 03:59 1.48476 103.20547 29690 ft 461 kts 145°
2026-05-06 03:59 1.45795 103.22311 29887 ft 462 kts 145°
2026-05-06 03:59 1.43107 103.24080 30087 ft 464 kts 145°
2026-05-06 04:00 1.40404 103.25857 30267 ft 465 kts 145°
2026-05-06 04:00 1.37696 103.27637 30463 ft 466 kts 145°
2026-05-06 04:00 1.34980 103.29422 30675 ft 468 kts 145°
2026-05-06 04:00 1.32272 103.31201 30851 ft 469 kts 145°
2026-05-06 04:01 1.29521 103.33009 31066 ft 471 kts 145°
2026-05-06 04:01 1.26781 103.34809 31269 ft 472 kts 145°
2026-05-06 04:01 1.24034 103.36620 31459 ft 473 kts 145°
2026-05-06 04:01 1.21289 103.38443 31654 ft 475 kts 145°
2026-05-06 04:02 1.18535 103.40277 31835 ft 476 kts 145°
2026-05-06 04:02 1.15778 103.42112 32030 ft 477 kts 145°
2026-05-06 04:02 1.13007 103.43955 32209 ft 479 kts 145°
2026-05-06 04:02 1.10231 103.45800 32384 ft 480 kts 145°
2026-05-06 04:03 1.07458 103.47641 32513 ft 481 kts 145°
2026-05-06 04:03 1.04783 103.49571 32649 ft 481 kts 140°
2026-05-06 04:03 1.02268 103.51774 32751 ft 482 kts 135°
2026-05-06 04:03 0.99933 103.54178 32857 ft 482 kts 133°
2026-05-06 04:04 0.97613 103.56599 32966 ft 483 kts 133°
2026-05-06 04:04 0.95279 103.59016 33061 ft 484 kts 133°
2026-05-06 04:04 0.92940 103.61431 33169 ft 484 kts 133°
2026-05-06 04:04 0.90593 103.63852 33221 ft 485 kts 133°
2026-05-06 04:05 0.88247 103.66274 33322 ft 485 kts 133°
2026-05-06 04:05 0.85896 103.68701 33424 ft 485 kts 133°
2026-05-06 04:05 0.83549 103.71126 33526 ft 485 kts 133°
2026-05-06 04:05 0.81202 103.73550 33630 ft 485 kts 133°
2026-05-06 04:06 0.78861 103.75970 33745 ft 484 kts 133°
2026-05-06 04:06 0.76519 103.78388 33826 ft 485 kts 133°
2026-05-06 04:06 0.71828 103.83234 33988 ft 485 kts 133°
2026-05-06 04:07 0.67143 103.88074 34158 ft 484 kts 133°
2026-05-06 04:07 0.62454 103.92918 34313 ft 484 kts 133°
2026-05-06 04:08 0.57796 103.97730 34470 ft 484 kts 133°
2026-05-06 04:08 0.53110 104.02568 34627 ft 484 kts 133°
2026-05-06 04:09 0.48429 104.07400 34793 ft 484 kts 133°
2026-05-06 04:09 0.44541 104.11414 34922 ft 484 kts 133°
2026-05-06 04:10 0.39859 104.16247 35090 ft 483 kts 133°
2026-05-06 04:10 0.35181 104.21077 35234 ft 484 kts 133°
2026-05-06 04:11 0.30500 104.25910 35399 ft 483 kts 133°
2026-05-06 04:11 0.25826 104.30737 35565 ft 483 kts 133°
2026-05-06 04:12 0.21155 104.35560 35742 ft 483 kts 133°
2026-05-06 04:12 0.16483 104.40384 35914 ft 483 kts 133°
2026-05-06 04:13 0.11813 104.45207 36103 ft 483 kts 133°
2026-05-06 04:13 0.07147 104.50025 36281 ft 483 kts 133°
2026-05-06 04:14 0.04811 104.52436 36395 ft 482 kts 133°
2026-05-06 04:14 0.02478 104.54844 36473 ft 482 kts 133°
2026-05-06 04:14 0.00148 104.57250 36574 ft 482 kts 133°
2026-05-06 04:14 -0.02184 104.59658 36674 ft 482 kts 133°
2026-05-06 04:15 -0.06842 104.64469 36870 ft 481 kts 133°
2026-05-06 04:15 -0.11467 104.69243 37064 ft 481 kts 133°
2026-05-06 04:16 -0.13791 104.71644 37172 ft 481 kts 133°
2026-05-06 04:16 -0.16118 104.74046 37255 ft 480 kts 133°
2026-05-06 04:16 -0.20765 104.78844 37447 ft 480 kts 133°
2026-05-06 04:17 -0.25408 104.83637 37624 ft 480 kts 133°
2026-05-06 04:17 -0.30406 104.88051 37762 ft 480 kts 143°
2026-05-06 04:18 -0.35935 104.91799 37911 ft 480 kts 145°
2026-05-06 04:18 -0.41469 104.95542 38052 ft 480 kts 145°
2026-05-06 04:19 -0.46991 104.99283 38218 ft 480 kts 145°
2026-05-06 04:19 -0.52518 105.03024 38329 ft 480 kts 145°
2026-05-06 04:20 -0.58002 105.06735 38516 ft 479 kts 145°
2026-05-06 04:20 -0.63517 105.10466 38613 ft 479 kts 145°
2026-05-06 04:21 -0.69029 105.14197 38731 ft 478 kts 145°
2026-05-06 04:21 -0.74537 105.17924 38828 ft 478 kts 145°
2026-05-06 04:22 -0.80041 105.21649 38883 ft 477 kts 145°
2026-05-06 04:23 -0.88284 105.27228 38883 ft 477 kts 145°
2026-05-06 04:23 -0.93776 105.30944 38883 ft 477 kts 145°
2026-05-06 04:24 -0.99273 105.34665 38880 ft 477 kts 145°
2026-05-06 04:24 -1.04765 105.38381 38874 ft 477 kts 145°
2026-05-06 04:25 -1.10253 105.42097 38879 ft 477 kts 145°
2026-05-06 04:25 -1.15747 105.45815 38876 ft 477 kts 145°
2026-05-06 04:26 -1.21238 105.49532 38879 ft 476 kts 145°
2026-05-06 04:26 -1.26726 105.53248 38877 ft 476 kts 145°
2026-05-06 04:27 -1.32215 105.56963 38878 ft 476 kts 145°
2026-05-06 04:27 -1.37699 105.60676 38877 ft 476 kts 145°
2026-05-06 04:28 -1.43187 105.64392 38879 ft 476 kts 145°
2026-05-06 04:28 -1.48674 105.68107 38870 ft 476 kts 145°
2026-05-06 04:29 -1.54159 105.71821 38871 ft 476 kts 145°
2026-05-06 04:29 -1.59649 105.75539 38873 ft 477 kts 145°
2026-05-06 04:30 -1.65135 105.79256 38876 ft 477 kts 145°
2026-05-06 04:30 -1.70594 105.82953 38874 ft 477 kts 145°
2026-05-06 04:31 -1.76084 105.86671 38876 ft 477 kts 145°
2026-05-06 04:31 -1.81572 105.90388 38878 ft 476 kts 145°
2026-05-06 04:32 -1.87057 105.94104 38879 ft 476 kts 145°
2026-05-06 04:32 -1.92545 105.97822 38880 ft 476 kts 145°
2026-05-06 04:33 -1.98032 106.01539 38877 ft 476 kts 145°
2026-05-06 04:33 -2.03514 106.05253 38874 ft 476 kts 145°
2026-05-06 04:34 -2.08998 106.08970 38878 ft 476 kts 145°
2026-05-06 04:34 -2.14385 106.12799 38871 ft 475 kts 140°
2026-05-06 04:35 -2.19138 106.17374 38866 ft 474 kts 130°
2026-05-06 04:35 -2.23235 106.22536 38877 ft 474 kts 127°
2026-05-06 04:36 -2.27292 106.27732 38872 ft 474 kts 127°
2026-05-06 04:36 -2.31357 106.32924 38878 ft 474 kts 127°
2026-05-06 04:37 -2.35397 106.38091 38873 ft 474 kts 127°
2026-05-06 04:37 -2.39462 106.43291 38877 ft 474 kts 127°
2026-05-06 04:38 -2.43527 106.48492 38878 ft 475 kts 127°
2026-05-06 04:38 -2.47592 106.53695 38873 ft 475 kts 127°
2026-05-06 04:39 -2.51660 106.58903 38874 ft 475 kts 127°
2026-05-06 04:39 -2.55732 106.64115 38873 ft 476 kts 128°
2026-05-06 04:40 -2.59807 106.69332 38867 ft 476 kts 128°
2026-05-06 04:40 -2.63885 106.74551 38877 ft 476 kts 128°
2026-05-06 04:41 -2.67936 106.79739 38866 ft 477 kts 128°
2026-05-06 04:41 -2.72019 106.84966 38855 ft 477 kts 127°
2026-05-06 04:42 -2.76106 106.90201 38878 ft 477 kts 127°
2026-05-06 04:42 -2.80193 106.95437 38878 ft 477 kts 127°
2026-05-06 04:43 -2.84282 107.00674 38866 ft 478 kts 127°
2026-05-06 04:43 -2.88373 107.05916 38870 ft 478 kts 127°
2026-05-06 04:44 -2.92466 107.11162 38869 ft 478 kts 127°
2026-05-06 04:44 -2.96561 107.16410 38869 ft 479 kts 127°
2026-05-06 04:45 -3.00658 107.21661 38852 ft 479 kts 127°
2026-05-06 04:45 -3.04756 107.26914 38850 ft 479 kts 127°
2026-05-06 04:46 -3.08856 107.32171 38854 ft 479 kts 127°
2026-05-06 04:46 -3.12956 107.37429 38850 ft 479 kts 128°
2026-05-06 04:47 -3.17049 107.42677 38848 ft 478 kts 127°
2026-05-06 04:47 -3.21104 107.47877 38851 ft 478 kts 127°
2026-05-06 04:48 -3.25191 107.53120 38857 ft 478 kts 127°
2026-05-06 04:48 -3.29271 107.58356 38857 ft 476 kts 127°
2026-05-06 04:49 -3.33353 107.63590 38864 ft 476 kts 127°
2026-05-06 04:49 -3.37459 107.68793 38861 ft 477 kts 128°
2026-05-06 04:50 -3.41574 107.73995 38863 ft 476 kts 128°
2026-05-06 04:50 -3.45666 107.79178 38865 ft 474 kts 128°
2026-05-06 04:51 -3.49753 107.84358 38864 ft 473 kts 128°
2026-05-06 04:51 -3.53830 107.89526 38862 ft 473 kts 128°
2026-05-06 04:52 -3.57909 107.94698 38864 ft 473 kts 127°
2026-05-06 04:52 -3.61987 107.99871 38863 ft 472 kts 127°
2026-05-06 04:53 -3.66033 108.05007 38864 ft 474 kts 128°
2026-05-06 04:53 -3.70126 108.10197 38859 ft 475 kts 128°
2026-05-06 04:54 -3.74226 108.15398 38858 ft 476 kts 128°
2026-05-06 04:54 -3.78322 108.20596 38857 ft 476 kts 128°
2026-05-06 04:55 -3.82423 108.25800 38853 ft 476 kts 128°
2026-05-06 04:55 -3.85830 108.30126 38858 ft 476 kts 128°
2026-05-06 04:56 -3.90627 108.36216 38855 ft 476 kts 128°
2026-05-06 04:56 -3.94728 108.41424 38856 ft 476 kts 128°
2026-05-06 04:57 -3.98144 108.45763 38859 ft 477 kts 128°
2026-05-06 04:57 -4.02247 108.50975 38855 ft 477 kts 128°
2026-05-06 04:58 -4.06352 108.56191 38856 ft 477 kts 128°
2026-05-06 04:58 -4.10457 108.61408 38859 ft 477 kts 128°
2026-05-06 04:59 -4.14561 108.66624 38856 ft 477 kts 128°
2026-05-06 04:59 -4.18663 108.71840 38858 ft 476 kts 128°
2026-05-06 05:00 -4.22765 108.77055 38861 ft 476 kts 128°
2026-05-06 05:00 -4.26863 108.82266 38861 ft 476 kts 128°
2026-05-06 05:01 -4.30965 108.87483 38860 ft 476 kts 128°
2026-05-06 05:01 -4.35065 108.92699 38857 ft 477 kts 128°
2026-05-06 05:02 -4.39166 108.97918 38860 ft 476 kts 128°
2026-05-06 05:02 -4.43267 109.03138 38857 ft 476 kts 128°
2026-05-06 05:03 -4.47366 109.08356 38858 ft 477 kts 128°
2026-05-06 05:03 -4.51445 109.13549 38853 ft 477 kts 128°
2026-05-06 05:04 -4.55547 109.18773 38853 ft 477 kts 128°
2026-05-06 05:04 -4.59647 109.23995 38858 ft 477 kts 128°
2026-05-06 05:05 -4.63745 109.29216 38850 ft 477 kts 128°
2026-05-06 05:05 -4.67851 109.34449 38855 ft 477 kts 128°
2026-05-06 05:06 -4.71950 109.39673 38853 ft 477 kts 128°
2026-05-06 05:06 -4.76047 109.44897 38854 ft 477 kts 128°
2026-05-06 05:07 -4.80150 109.50129 38855 ft 477 kts 128°
2026-05-06 05:07 -4.84249 109.55357 38855 ft 477 kts 128°
2026-05-06 05:08 -4.88351 109.60589 38853 ft 477 kts 128°
2026-05-06 05:08 -4.92420 109.65781 38855 ft 477 kts 128°
2026-05-06 05:09 -4.96521 109.71015 38849 ft 477 kts 128°
2026-05-06 05:09 -5.00619 109.76246 38856 ft 477 kts 128°
2026-05-06 05:10 -5.04721 109.81483 38850 ft 477 kts 128°
2026-05-06 05:10 -5.08822 109.86720 38850 ft 477 kts 128°
2026-05-06 05:11 -5.12922 109.91958 38860 ft 477 kts 128°
2026-05-06 05:11 -5.17019 109.97193 38859 ft 477 kts 128°
2026-05-06 05:12 -5.21091 110.02397 38856 ft 477 kts 128°
2026-05-06 05:12 -5.25184 110.07630 38857 ft 477 kts 128°
2026-05-06 05:13 -5.29311 110.12907 38855 ft 477 kts 128°
2026-05-06 05:13 -5.33378 110.18108 38850 ft 477 kts 128°
2026-05-06 05:14 -5.37475 110.23349 38854 ft 477 kts 128°
2026-05-06 05:14 -5.41574 110.28593 38852 ft 477 kts 128°
2026-05-06 05:15 -5.45672 110.33837 38857 ft 477 kts 128°
2026-05-06 05:15 -5.49777 110.39077 38855 ft 477 kts 128°
2026-05-06 05:16 -5.53914 110.44284 38852 ft 477 kts 128°
2026-05-06 05:16 -5.58059 110.49501 38849 ft 477 kts 128°
2026-05-06 05:17 -5.62196 110.54719 38856 ft 477 kts 128°
2026-05-06 05:17 -5.66331 110.59937 38850 ft 477 kts 128°
2026-05-06 05:18 -5.70465 110.65155 38852 ft 478 kts 128°
2026-05-06 05:18 -5.74604 110.70381 38852 ft 478 kts 128°
2026-05-06 05:19 -5.78743 110.75609 38854 ft 478 kts 128°
2026-05-06 05:19 -5.82883 110.80839 38855 ft 478 kts 128°
2026-05-06 05:20 -5.86992 110.86031 38846 ft 478 kts 128°
2026-05-06 05:20 -5.91132 110.91263 38855 ft 479 kts 128°
2026-05-06 05:21 -5.95274 110.96501 38853 ft 479 kts 128°
2026-05-06 05:21 -5.99419 111.01742 38847 ft 479 kts 128°
2026-05-06 05:22 -6.03561 111.06982 38851 ft 479 kts 128°
2026-05-06 05:22 -6.07699 111.12219 38850 ft 479 kts 128°
2026-05-06 05:23 -6.11842 111.17462 38854 ft 479 kts 128°
2026-05-06 05:23 -6.18047 111.25319 38849 ft 478 kts 128°
2026-05-06 05:24 -6.22157 111.30523 38851 ft 478 kts 128°
2026-05-06 05:24 -6.26296 111.35768 38847 ft 478 kts 128°
2026-05-06 05:25 -6.30434 111.41012 38847 ft 479 kts 128°
2026-05-06 05:25 -6.34572 111.46257 38854 ft 479 kts 128°
2026-05-06 05:26 -6.38708 111.51502 38852 ft 479 kts 128°
2026-05-06 05:26 -6.42847 111.56752 38848 ft 479 kts 128°
2026-05-06 05:27 -6.46988 111.62005 38843 ft 479 kts 128°
2026-05-06 05:27 -6.51121 111.67251 38852 ft 479 kts 128°
2026-05-06 05:28 -6.55259 111.72505 38845 ft 479 kts 128°
2026-05-06 05:28 -6.59394 111.77756 38848 ft 479 kts 128°
2026-05-06 05:29 -6.63530 111.83009 38838 ft 479 kts 128°
2026-05-06 05:29 -6.67638 111.88228 38840 ft 479 kts 128°
2026-05-06 05:30 -6.71774 111.93486 38847 ft 479 kts 128°
2026-05-06 05:30 -6.75909 111.98743 38850 ft 479 kts 128°
2026-05-06 05:31 -6.80044 112.04002 38850 ft 479 kts 129°
2026-05-06 05:31 -6.84181 112.09264 38850 ft 479 kts 128°
2026-05-06 05:32 -6.88317 112.14528 38854 ft 479 kts 129°
2026-05-06 05:32 -6.92459 112.19802 38850 ft 480 kts 129°
2026-05-06 05:33 -6.96602 112.25076 38855 ft 480 kts 129°
2026-05-06 05:33 -7.00750 112.30359 38854 ft 481 kts 129°
2026-05-06 05:34 -7.04904 112.35653 38859 ft 481 kts 129°
2026-05-06 05:34 -7.09021 112.40901 38859 ft 480 kts 129°
2026-05-06 05:35 -7.13165 112.46185 38857 ft 480 kts 129°
2026-05-06 05:35 -7.17307 112.51468 38857 ft 480 kts 129°
2026-05-06 05:36 -7.21445 112.56748 38860 ft 479 kts 129°
2026-05-06 05:36 -7.25575 112.62019 38869 ft 480 kts 129°
2026-05-06 05:37 -7.29707 112.67295 38871 ft 479 kts 129°
2026-05-06 05:37 -7.33836 112.72567 38874 ft 479 kts 129°
2026-05-06 05:38 -7.37844 112.77936 38875 ft 480 kts 123°
2026-05-06 05:38 -7.41230 112.83737 38875 ft 480 kts 121°
2026-05-06 05:39 -7.44596 112.89548 38873 ft 479 kts 121°
2026-05-06 05:39 -7.47966 112.95352 38874 ft 480 kts 121°
2026-05-06 05:40 -7.51334 113.01161 38873 ft 480 kts 121°
2026-05-06 05:40 -7.54698 113.06971 38869 ft 480 kts 121°
2026-05-06 05:41 -7.58062 113.12780 38872 ft 479 kts 121°
2026-05-06 05:41 -7.61423 113.18588 38875 ft 479 kts 121°
2026-05-06 05:42 -7.64782 113.24394 38873 ft 479 kts 121°
2026-05-06 05:42 -7.67575 113.29223 38858 ft 479 kts 121°
2026-05-06 05:43 -7.70930 113.35026 38862 ft 479 kts 121°
2026-05-06 05:43 -7.74289 113.40838 38863 ft 479 kts 121°
2026-05-06 05:44 -7.78192 113.47596 38862 ft 480 kts 121°
2026-05-06 05:44 -7.81007 113.52471 38866 ft 480 kts 121°
2026-05-06 05:45 -7.84373 113.58303 38869 ft 481 kts 121°
2026-05-06 05:45 -7.87739 113.64137 38871 ft 481 kts 121°
2026-05-06 05:46 -7.91086 113.69940 38875 ft 482 kts 121°
2026-05-06 05:46 -7.94457 113.75785 38878 ft 482 kts 121°
2026-05-06 05:47 -7.97828 113.81635 38885 ft 483 kts 121°
2026-05-06 05:47 -8.01204 113.87495 38901 ft 483 kts 121°
2026-05-06 05:48 -8.04583 113.93365 38886 ft 483 kts 121°
2026-05-06 05:48 -8.07959 113.99230 38888 ft 484 kts 121°
2026-05-06 05:49 -8.11339 114.05104 38887 ft 484 kts 121°
2026-05-06 05:49 -8.14720 114.10984 38880 ft 484 kts 121°
2026-05-06 05:50 -8.18102 114.16867 38876 ft 485 kts 121°
2026-05-06 05:50 -8.21480 114.22748 38882 ft 485 kts 121°
2026-05-06 05:51 -8.24868 114.28648 38874 ft 485 kts 121°
2026-05-06 05:51 -8.28259 114.34551 38871 ft 486 kts 122°
2026-05-06 05:52 -8.31646 114.40454 38866 ft 486 kts 122°
2026-05-06 05:52 -8.35032 114.46357 38861 ft 486 kts 122°
2026-05-06 05:53 -8.38424 114.52273 38859 ft 486 kts 122°
2026-05-06 05:53 -8.41792 114.58148 38854 ft 486 kts 122°
2026-05-06 05:54 -8.45181 114.64063 38850 ft 487 kts 122°
2026-05-06 05:54 -8.48571 114.69983 38856 ft 487 kts 122°
2026-05-06 05:55 -8.51959 114.75902 38852 ft 487 kts 122°
2026-05-06 05:55 -8.55353 114.81833 38856 ft 487 kts 122°
2026-05-06 05:56 -8.58743 114.87760 38854 ft 487 kts 122°
2026-05-06 05:56 -8.62133 114.93690 38854 ft 487 kts 122°
2026-05-06 05:57 -8.65524 114.99625 38856 ft 487 kts 122°
2026-05-06 05:57 -8.68915 115.05562 38855 ft 488 kts 122°
2026-05-06 05:58 -8.72308 115.11505 38859 ft 488 kts 121°
2026-05-06 05:58 -8.75680 115.17408 38857 ft 488 kts 122°
2026-05-06 05:59 -8.79205 115.23319 38855 ft 488 kts 123°
2026-05-06 05:59 -8.82718 115.29144 38856 ft 488 kts 123°
2026-05-06 06:00 -8.86260 115.35056 38856 ft 488 kts 123°
2026-05-06 06:00 -8.89747 115.40893 38856 ft 488 kts 123°
2026-05-06 06:01 -8.93259 115.46776 38851 ft 488 kts 123°
2026-05-06 06:01 -8.96771 115.52660 38854 ft 488 kts 123°
2026-05-06 06:02 -9.00282 115.58545 38849 ft 489 kts 123°
2026-05-06 06:02 -9.03791 115.64429 38850 ft 489 kts 123°
2026-05-06 06:03 -9.07304 115.70324 38848 ft 489 kts 123°
2026-05-06 06:03 -9.10820 115.76226 38854 ft 489 kts 123°
2026-05-06 06:04 -9.14327 115.82115 38850 ft 489 kts 123°
2026-05-06 06:04 -9.17837 115.88013 38850 ft 489 kts 123°
2026-05-06 06:05 -9.21342 115.93904 38851 ft 489 kts 123°
2026-05-06 06:05 -9.24846 115.99798 38853 ft 488 kts 123°
2026-05-06 06:06 -9.28348 116.05691 38852 ft 488 kts 123°
2026-05-06 06:06 -9.31825 116.11543 38851 ft 488 kts 123°
2026-05-06 06:07 -9.35327 116.17441 38852 ft 488 kts 123°
2026-05-06 06:07 -9.38825 116.23334 38853 ft 488 kts 123°
2026-05-06 06:08 -9.42317 116.29222 38851 ft 488 kts 123°
2026-05-06 06:08 -9.45808 116.35110 38852 ft 487 kts 123°
2026-05-06 06:09 -9.49297 116.40998 38847 ft 487 kts 123°
2026-05-06 06:09 -9.52786 116.46887 38850 ft 487 kts 123°
2026-05-06 06:10 -9.56272 116.52775 38851 ft 487 kts 123°
2026-05-06 06:10 -9.59756 116.58663 38853 ft 487 kts 123°
2026-05-06 06:11 -9.63219 116.64517 38854 ft 487 kts 123°
2026-05-06 06:11 -9.66706 116.70416 38851 ft 487 kts 123°
2026-05-06 06:12 -9.70187 116.76308 38855 ft 488 kts 123°
2026-05-06 06:12 -9.73672 116.82208 38854 ft 488 kts 123°
2026-05-06 06:13 -9.77162 116.88120 38853 ft 488 kts 123°
2026-05-06 06:13 -9.80649 116.94029 38850 ft 488 kts 123°
2026-05-06 06:14 -9.84135 116.99942 38850 ft 489 kts 123°
2026-05-06 06:14 -9.87624 117.05861 38850 ft 489 kts 123°
2026-05-06 06:15 -9.91091 117.11745 38852 ft 489 kts 123°
2026-05-06 06:15 -9.94586 117.17681 38855 ft 490 kts 123°
2026-05-06 06:16 -9.98075 117.23609 38855 ft 490 kts 123°
2026-05-06 06:16 -10.01570 117.29551 38854 ft 490 kts 123°
2026-05-06 06:17 -10.05056 117.35499 38853 ft 491 kts 122°
2026-05-06 06:17 -10.08432 117.41525 38852 ft 491 kts 122°
2026-05-06 06:18 -10.11801 117.47562 38855 ft 491 kts 122°
2026-05-06 06:18 -10.15182 117.53586 38857 ft 491 kts 122°
2026-05-06 06:19 -10.18548 117.59578 38859 ft 491 kts 122°
2026-05-06 06:19 -10.21933 117.65608 38855 ft 492 kts 122°
2026-05-06 06:20 -10.25315 117.71637 38858 ft 492 kts 122°
2026-05-06 06:20 -10.28701 117.77676 38856 ft 492 kts 122°
2026-05-06 06:21 -10.32081 117.83708 38850 ft 492 kts 122°
2026-05-06 06:21 -10.35463 117.89746 38852 ft 492 kts 122°
2026-05-06 06:22 -10.38841 117.95781 38851 ft 492 kts 122°
2026-05-06 06:22 -10.42221 118.01822 38856 ft 492 kts 122°
2026-05-06 06:23 -10.45596 118.07858 38851 ft 492 kts 122°
2026-05-06 06:23 -10.48975 118.13904 38851 ft 492 kts 122°
2026-05-06 06:24 -10.52353 118.19953 38850 ft 492 kts 122°
2026-05-06 06:24 -10.55726 118.25996 38854 ft 492 kts 122°
2026-05-06 06:25 -10.59102 118.32046 38851 ft 492 kts 122°
2026-05-06 06:26 -10.64166 118.41130 38853 ft 492 kts 122°
2026-05-06 06:26 -10.67543 118.47192 38851 ft 492 kts 122°
2026-05-06 06:27 -10.70918 118.53254 38845 ft 493 kts 122°
2026-05-06 06:27 -10.74294 118.59320 38854 ft 493 kts 122°
2026-05-06 06:28 -10.77651 118.65357 38850 ft 493 kts 122°
2026-05-06 06:28 -10.81030 118.71436 38859 ft 493 kts 122°
2026-05-06 06:29 -10.83858 118.76526 38859 ft 493 kts 122°
2026-05-06 06:29 -10.87779 118.83589 38859 ft 493 kts 122°
2026-05-06 06:30 -10.91154 118.89671 38860 ft 493 kts 122°
2026-05-06 06:30 -10.93959 118.94728 38862 ft 493 kts 122°
2026-05-06 06:31 -10.97351 119.00848 38862 ft 493 kts 122°
2026-05-06 06:31 -11.00721 119.06933 38858 ft 493 kts 122°
2026-05-06 06:32 -11.04067 119.12975 38853 ft 493 kts 122°
2026-05-06 06:32 -11.07435 119.19062 38861 ft 493 kts 122°
2026-05-06 06:33 -11.10804 119.25154 38854 ft 494 kts 122°
2026-05-06 06:33 -11.14172 119.31249 38858 ft 494 kts 122°
2026-05-06 06:34 -11.17541 119.37349 38855 ft 494 kts 122°
2026-05-06 06:34 -11.20912 119.43455 38857 ft 495 kts 122°
2026-05-06 06:35 -11.24283 119.49566 38863 ft 495 kts 122°
2026-05-06 06:35 -11.27657 119.55687 38860 ft 495 kts 122°
2026-05-06 06:36 -11.31035 119.61816 38861 ft 495 kts 122°
2026-05-06 06:36 -11.34410 119.67946 38857 ft 496 kts 122°
2026-05-06 06:37 -11.37762 119.74037 38858 ft 496 kts 122°
2026-05-06 06:37 -11.41157 119.80210 38867 ft 496 kts 122°
2026-05-06 06:38 -11.44512 119.86313 38866 ft 497 kts 122°
2026-05-06 06:38 -11.47887 119.92459 38865 ft 497 kts 122°
2026-05-06 06:39 -11.51265 119.98612 38870 ft 497 kts 122°
2026-05-06 06:39 -11.54642 120.04768 38870 ft 497 kts 122°
2026-05-06 06:40 -11.58017 120.10923 38875 ft 497 kts 122°
2026-05-06 06:40 -11.61391 120.17080 38881 ft 497 kts 122°
2026-05-06 06:41 -11.64762 120.23236 38882 ft 497 kts 122°
2026-05-06 06:41 -11.68135 120.29400 38870 ft 497 kts 122°
2026-05-06 06:42 -11.71512 120.35574 38881 ft 497 kts 122°
2026-05-06 06:42 -11.74880 120.41737 38866 ft 498 kts 122°
2026-05-06 06:43 -11.78249 120.47905 38857 ft 498 kts 122°
2026-05-06 06:43 -11.81620 120.54081 38858 ft 498 kts 122°
2026-05-06 06:44 -11.84965 120.60212 38851 ft 498 kts 122°
2026-05-06 06:44 -11.88331 120.66387 38852 ft 498 kts 122°
2026-05-06 06:45 -11.91695 120.72562 38851 ft 498 kts 122°
2026-05-06 06:45 -11.95063 120.78747 38854 ft 498 kts 122°
2026-05-06 06:46 -11.98431 120.84932 38860 ft 498 kts 122°
2026-05-06 06:46 -12.01992 120.90982 38858 ft 496 kts 127°
2026-05-06 06:47 -12.05779 120.96877 38862 ft 496 kts 127°
2026-05-06 06:47 -12.09558 121.02786 38864 ft 497 kts 127°
2026-05-06 06:48 -12.13335 121.08701 38868 ft 497 kts 127°
2026-05-06 06:48 -12.17121 121.14634 38865 ft 498 kts 127°
2026-05-06 06:49 -12.20881 121.20531 38865 ft 498 kts 127°
2026-05-06 06:49 -12.24662 121.26466 38868 ft 499 kts 127°
2026-05-06 06:50 -12.28448 121.32411 38871 ft 499 kts 127°
2026-05-06 06:50 -12.32234 121.38362 38872 ft 499 kts 127°
2026-05-06 06:51 -12.36021 121.44316 38871 ft 500 kts 127°
2026-05-06 06:51 -12.39813 121.50283 38870 ft 500 kts 127°
2026-05-06 06:52 -12.43600 121.56247 38877 ft 500 kts 127°
2026-05-06 06:52 -12.47394 121.62224 38872 ft 501 kts 127°
2026-05-06 06:53 -12.51188 121.68204 38873 ft 501 kts 127°
2026-05-06 06:53 -12.54979 121.74186 38874 ft 501 kts 127°
2026-05-06 06:54 -12.58749 121.80136 38871 ft 501 kts 127°
2026-05-06 06:54 -12.62540 121.86124 38875 ft 501 kts 127°
2026-05-06 06:55 -12.66331 121.92117 38877 ft 501 kts 127°
2026-05-06 06:55 -12.70119 121.98108 38878 ft 501 kts 127°
2026-05-06 06:56 -12.73910 122.04108 38873 ft 501 kts 127°
2026-05-06 06:56 -12.77702 122.10112 38875 ft 502 kts 127°
2026-05-06 06:57 -12.81487 122.16112 38878 ft 502 kts 127°
2026-05-06 06:57 -12.85275 122.22118 38877 ft 502 kts 127°
2026-05-06 06:58 -12.89062 122.28128 38879 ft 502 kts 127°
2026-05-06 06:58 -12.92853 122.34147 38877 ft 502 kts 127°
2026-05-06 06:59 -12.96637 122.40159 38879 ft 502 kts 127°
2026-05-06 06:59 -13.00424 122.46181 38878 ft 502 kts 127°
2026-05-06 07:00 -13.04188 122.52171 38880 ft 503 kts 127°
2026-05-06 07:00 -13.07978 122.58205 38881 ft 503 kts 127°
2026-05-06 07:01 -13.11766 122.64240 38878 ft 503 kts 127°
2026-05-06 07:01 -13.15557 122.70283 38882 ft 503 kts 127°
2026-05-06 07:02 -13.19346 122.76329 38883 ft 504 kts 127°
2026-05-06 07:02 -13.23134 122.82376 38883 ft 504 kts 127°
2026-05-06 07:03 -13.26923 122.88430 38884 ft 504 kts 127°
2026-05-06 07:03 -13.30713 122.94489 38884 ft 504 kts 127°
2026-05-06 07:04 -13.34502 123.00550 38884 ft 505 kts 127°
2026-05-06 07:04 -13.38299 123.06630 38886 ft 505 kts 127°
2026-05-06 07:05 -13.42061 123.12656 38884 ft 505 kts 127°
2026-05-06 07:05 -13.45876 123.18773 38886 ft 505 kts 127°
2026-05-06 07:06 -13.49643 123.24816 38884 ft 505 kts 127°
2026-05-06 07:06 -13.53432 123.30899 38885 ft 505 kts 127°
2026-05-06 07:07 -13.57219 123.36982 38884 ft 505 kts 127°
2026-05-06 07:07 -13.61010 123.43077 38892 ft 506 kts 127°
2026-05-06 07:08 -13.64796 123.49168 38888 ft 506 kts 127°
2026-05-06 07:08 -13.68585 123.55268 38890 ft 506 kts 127°
2026-05-06 07:09 -13.72370 123.61366 38892 ft 506 kts 127°
2026-05-06 07:09 -13.76158 123.67475 38889 ft 506 kts 127°
2026-05-06 07:10 -13.79946 123.73586 38889 ft 507 kts 127°
2026-05-06 07:10 -13.83735 123.79703 38889 ft 507 kts 127°
2026-05-06 07:11 -13.87523 123.85824 38890 ft 507 kts 127°
2026-05-06 07:11 -13.91311 123.91950 38893 ft 507 kts 127°
2026-05-06 07:12 -13.95098 123.98077 38890 ft 507 kts 127°
2026-05-06 07:12 -13.98886 124.04211 38891 ft 508 kts 127°
2026-05-06 07:13 -14.02675 124.10352 38894 ft 508 kts 127°
2026-05-06 07:13 -14.06437 124.16452 38891 ft 508 kts 127°
2026-05-06 07:14 -14.10228 124.22606 38895 ft 508 kts 127°
2026-05-06 07:14 -14.13405 124.27766 38894 ft 509 kts 127°
2026-05-06 07:15 -14.17809 124.34922 38890 ft 509 kts 127°
2026-05-06 07:15 -14.21602 124.41092 38889 ft 509 kts 127°
2026-05-06 07:16 -14.24755 124.46223 38895 ft 509 kts 127°
2026-05-06 07:16 -14.28544 124.52395 38896 ft 510 kts 127°
2026-05-06 07:17 -14.32335 124.58576 38894 ft 510 kts 127°
2026-05-06 07:17 -14.36127 124.64761 38885 ft 510 kts 127°
2026-05-06 07:18 -14.39920 124.70954 38894 ft 511 kts 127°
2026-05-06 07:18 -14.43714 124.77152 38891 ft 511 kts 127°
2026-05-06 07:19 -14.47511 124.83360 38893 ft 512 kts 127°
2026-05-06 07:19 -14.51309 124.89575 38889 ft 512 kts 127°
2026-05-06 07:20 -14.55083 124.95755 38893 ft 512 kts 127°
2026-05-06 07:20 -14.58884 125.01984 38890 ft 513 kts 127°
2026-05-06 07:21 -14.62687 125.08219 38886 ft 513 kts 127°
2026-05-06 07:21 -14.66488 125.14455 38888 ft 513 kts 127°
2026-05-06 07:22 -14.70288 125.20692 38887 ft 513 kts 127°
2026-05-06 07:22 -14.74087 125.26953 38885 ft 514 kts 127°
2026-05-06 07:23 -14.77885 125.33216 38890 ft 514 kts 127°
2026-05-06 07:23 -14.81685 125.39478 38893 ft 515 kts 127°
2026-05-06 07:24 -14.85487 125.45749 38892 ft 515 kts 127°
2026-05-06 07:24 -14.89262 125.51982 38895 ft 515 kts 127°
2026-05-06 07:25 -14.93089 125.58305 38898 ft 515 kts 127°
2026-05-06 07:25 -14.96862 125.64546 38896 ft 516 kts 127°
2026-05-06 07:26 -15.00665 125.70840 38893 ft 516 kts 127°
2026-05-06 07:26 -15.04473 125.77146 38901 ft 516 kts 127°
2026-05-06 07:27 -15.08275 125.83449 38902 ft 516 kts 127°
2026-05-06 07:27 -15.12079 125.89762 38904 ft 517 kts 127°
2026-05-06 07:28 -15.15883 125.96078 38906 ft 517 kts 127°
2026-05-06 07:28 -15.21594 126.05570 38899 ft 518 kts 127°
2026-05-06 07:29 -15.25401 126.11905 38897 ft 518 kts 127°
2026-05-06 07:29 -15.29210 126.18248 38907 ft 519 kts 127°
2026-05-06 07:30 -15.33018 126.24595 38906 ft 519 kts 127°
2026-05-06 07:30 -15.36828 126.30952 38908 ft 519 kts 127°
2026-05-06 07:31 -15.40636 126.37309 38913 ft 519 kts 127°
2026-05-06 07:31 -15.44449 126.43679 38914 ft 520 kts 127°
2026-05-06 07:32 -15.48231 126.50006 38918 ft 520 kts 127°
2026-05-06 07:32 -15.52046 126.56390 38921 ft 520 kts 127°
2026-05-06 07:33 -15.55857 126.62774 38919 ft 521 kts 127°
2026-05-06 07:33 -15.59673 126.69171 38923 ft 521 kts 127°
2026-05-06 07:34 -15.63482 126.75563 38921 ft 521 kts 127°
2026-05-06 07:34 -15.67294 126.81966 38927 ft 522 kts 127°
2026-05-06 07:35 -15.71105 126.88372 38931 ft 522 kts 127°
2026-05-06 07:35 -15.74919 126.94788 38930 ft 522 kts 127°
2026-05-06 07:36 -15.78730 127.01205 38933 ft 522 kts 127°
2026-05-06 07:36 -15.82542 127.07631 38931 ft 522 kts 127°
2026-05-06 07:37 -15.86327 127.14014 38936 ft 523 kts 127°
2026-05-06 07:37 -15.90138 127.20448 38936 ft 523 kts 127°
2026-05-06 07:38 -15.93975 127.26930 38937 ft 523 kts 127°
2026-05-06 07:38 -15.97758 127.33329 38943 ft 523 kts 127°
2026-05-06 07:39 -16.01571 127.39784 38943 ft 523 kts 127°
2026-05-06 07:39 -16.05381 127.46239 38948 ft 524 kts 127°
2026-05-06 07:40 -16.09191 127.52699 38952 ft 524 kts 127°
2026-05-06 07:40 -16.13001 127.59165 38951 ft 524 kts 127°
2026-05-06 07:41 -16.16809 127.65634 38959 ft 524 kts 127°
2026-05-06 07:41 -16.20617 127.72109 38958 ft 524 kts 127°
2026-05-06 07:42 -16.24425 127.78589 38960 ft 525 kts 127°
2026-05-06 07:42 -16.28211 127.85038 38970 ft 525 kts 127°
2026-05-06 07:43 -16.32020 127.91532 38966 ft 525 kts 127°
2026-05-06 07:43 -16.35827 127.98029 38966 ft 526 kts 127°
2026-05-06 07:44 -16.39633 128.04531 38971 ft 526 kts 127°
2026-05-06 07:44 -16.43439 128.11037 38972 ft 526 kts 127°
2026-05-06 07:45 -16.47245 128.17546 38967 ft 526 kts 126°
2026-05-06 07:45 -16.51041 128.24050 38973 ft 526 kts 127°
2026-05-06 07:46 -16.54844 128.30571 38973 ft 526 kts 127°
2026-05-06 07:46 -16.58645 128.37090 38983 ft 527 kts 127°
2026-05-06 07:47 -16.62455 128.43628 38986 ft 527 kts 127°
2026-05-06 07:47 -16.66152 128.50181 38986 ft 529 kts 124°
2026-05-06 07:48 -16.69761 128.56874 38983 ft 529 kts 124°
2026-05-06 07:48 -16.73390 128.63550 38972 ft 529 kts 125°
2026-05-06 07:49 -16.77033 128.70221 38973 ft 530 kts 125°
2026-05-06 07:49 -16.80682 128.76906 38976 ft 530 kts 125°
2026-05-06 07:50 -16.84334 128.83606 38978 ft 531 kts 125°
2026-05-06 07:50 -16.87980 128.90301 38985 ft 531 kts 125°
2026-05-06 07:51 -16.91633 128.97019 38988 ft 532 kts 125°
2026-05-06 07:51 -16.95281 129.03731 38992 ft 532 kts 125°
2026-05-06 07:52 -16.98934 129.10462 38994 ft 532 kts 125°
2026-05-06 07:52 -17.02582 129.17188 38997 ft 532 kts 125°
2026-05-06 07:53 -17.06207 129.23880 39001 ft 532 kts 125°
2026-05-06 07:53 -17.09876 129.30658 39000 ft 532 kts 124°
2026-05-06 07:54 -17.13521 129.37400 39001 ft 533 kts 124°
2026-05-06 07:54 -17.17164 129.44146 39002 ft 533 kts 124°
2026-05-06 07:55 -17.20807 129.50897 39007 ft 533 kts 124°
2026-05-06 07:55 -17.24423 129.57605 39006 ft 533 kts 124°
2026-05-06 07:56 -17.28066 129.64368 39010 ft 533 kts 124°
2026-05-06 07:56 -17.31707 129.71136 39022 ft 534 kts 124°
2026-05-06 07:57 -17.35347 129.77909 39016 ft 534 kts 124°
2026-05-06 07:57 -17.38993 129.84700 39013 ft 534 kts 124°
2026-05-06 07:58 -17.42631 129.91484 39013 ft 535 kts 124°
2026-05-06 07:58 -17.46278 129.98290 39020 ft 535 kts 124°
2026-05-06 07:59 -17.49919 130.05092 39026 ft 535 kts 124°
2026-05-06 07:59 -17.53560 130.11903 39026 ft 536 kts 124°
2026-05-06 08:00 -17.57200 130.18719 39032 ft 536 kts 124°
2026-05-06 08:00 -17.60840 130.25541 39032 ft 536 kts 124°
2026-05-06 08:01 -17.64479 130.32368 39028 ft 536 kts 124°
2026-05-06 08:01 -17.68092 130.39153 39023 ft 537 kts 124°
2026-05-06 08:02 -17.71732 130.45999 39027 ft 537 kts 124°
2026-05-06 08:02 -17.74779 130.51733 39028 ft 537 kts 124°
2026-05-06 08:03 -17.79008 130.59698 39028 ft 538 kts 124°
2026-05-06 08:03 -17.82057 130.65450 39028 ft 538 kts 124°
2026-05-06 08:04 -17.85693 130.72314 39027 ft 538 kts 124°
2026-05-06 08:04 -17.89330 130.79187 39032 ft 538 kts 124°
2026-05-06 08:05 -17.92963 130.86061 39030 ft 538 kts 124°
2026-05-06 08:05 -17.96571 130.92894 39029 ft 538 kts 124°
2026-05-06 08:06 -18.00199 130.99772 39031 ft 538 kts 124°
2026-05-06 08:06 -18.03829 131.06663 39028 ft 539 kts 124°
2026-05-06 08:07 -18.07454 131.13551 39031 ft 539 kts 124°
2026-05-06 08:07 -18.11081 131.20450 39029 ft 539 kts 123°
2026-05-06 08:08 -18.14707 131.27353 39036 ft 539 kts 123°
2026-05-06 08:08 -18.18334 131.34269 39035 ft 540 kts 123°
2026-05-06 08:09 -18.21958 131.41185 39034 ft 540 kts 123°
2026-05-06 08:09 -18.25583 131.48109 39032 ft 540 kts 123°
2026-05-06 08:10 -18.29205 131.55037 39037 ft 540 kts 123°
2026-05-06 08:10 -18.32827 131.61973 39035 ft 541 kts 123°
2026-05-06 08:11 -18.36450 131.68917 39038 ft 541 kts 123°
2026-05-06 08:11 -18.40069 131.75861 39032 ft 541 kts 123°
2026-05-06 08:12 -18.43686 131.82808 39038 ft 541 kts 123°
2026-05-06 08:12 -18.47282 131.89725 39039 ft 542 kts 123°
2026-05-06 08:13 -18.50901 131.96693 39037 ft 542 kts 123°
2026-05-06 08:13 -18.54517 132.03663 39040 ft 542 kts 123°
2026-05-06 08:14 -18.58131 132.10636 39041 ft 542 kts 123°
2026-05-06 08:14 -18.61740 132.17611 39040 ft 542 kts 123°
2026-05-06 08:15 -18.65350 132.24593 39043 ft 542 kts 123°
2026-05-06 08:15 -18.68962 132.31585 39042 ft 543 kts 123°
2026-05-06 08:16 -18.72571 132.38580 39041 ft 543 kts 122°
2026-05-06 08:16 -18.76181 132.45581 39044 ft 543 kts 122°
2026-05-06 08:17 -18.79764 132.52538 39043 ft 544 kts 122°
2026-05-06 08:17 -18.83361 132.59564 39043 ft 544 kts 122°
2026-05-06 08:18 -18.86954 132.66598 39044 ft 544 kts 122°
2026-05-06 08:18 -18.90555 132.73646 39042 ft 545 kts 122°
2026-05-06 08:19 -18.94153 132.80696 39048 ft 545 kts 122°
2026-05-06 08:19 -18.97751 132.87753 39048 ft 545 kts 122°
2026-05-06 08:20 -19.01346 132.94815 39046 ft 546 kts 122°
2026-05-06 08:20 -19.04918 133.01837 39048 ft 546 kts 122°
2026-05-06 08:21 -19.08512 133.08913 39054 ft 546 kts 122°
2026-05-06 08:21 -19.12105 133.15995 39061 ft 547 kts 122°
2026-05-06 08:22 -19.15698 133.23083 39065 ft 547 kts 122°
2026-05-06 08:22 -19.19292 133.30185 39066 ft 547 kts 122°
2026-05-06 08:23 -19.22880 133.37282 39066 ft 547 kts 121°
2026-05-06 08:23 -19.26471 133.44393 39054 ft 548 kts 121°
2026-05-06 08:24 -19.30065 133.51519 39054 ft 548 kts 121°
2026-05-06 08:24 -19.33654 133.58643 39062 ft 549 kts 121°
2026-05-06 08:25 -19.37243 133.65777 39066 ft 549 kts 121°
2026-05-06 08:25 -19.40834 133.72922 39063 ft 549 kts 121°
2026-05-06 08:26 -19.44397 133.80022 39058 ft 549 kts 121°
2026-05-06 08:26 -19.47985 133.87179 39073 ft 550 kts 121°
2026-05-06 08:27 -19.51572 133.94342 39066 ft 550 kts 121°
2026-05-06 08:27 -19.55154 134.01505 39063 ft 550 kts 121°
2026-05-06 08:28 -19.58732 134.08669 39071 ft 550 kts 121°
2026-05-06 08:28 -19.62312 134.15844 39064 ft 550 kts 121°
2026-05-06 08:29 -19.65975 134.22971 39070 ft 549 kts 123°
2026-05-06 08:29 -19.69841 134.29964 39065 ft 549 kts 123°
2026-05-06 08:30 -19.73686 134.36974 39072 ft 550 kts 123°
2026-05-06 08:30 -19.77506 134.44008 39071 ft 550 kts 123°
2026-05-06 08:31 -19.81300 134.51014 39068 ft 550 kts 123°
2026-05-06 08:31 -19.85115 134.58067 39070 ft 551 kts 123°
2026-05-06 08:32 -19.88927 134.65122 39069 ft 551 kts 123°
2026-05-06 08:32 -19.92741 134.72190 39069 ft 551 kts 122°
2026-05-06 08:33 -19.96554 134.79265 39068 ft 552 kts 122°
2026-05-06 08:33 -20.00367 134.86348 39074 ft 552 kts 122°
2026-05-06 08:34 -20.06087 134.96990 39069 ft 552 kts 122°
2026-05-06 08:35 -20.09875 135.04047 39068 ft 553 kts 122°
2026-05-06 08:35 -20.13685 135.11154 39073 ft 553 kts 122°
2026-05-06 08:36 -20.17494 135.18269 39071 ft 553 kts 122°
2026-05-06 08:36 -20.21302 135.25391 39073 ft 554 kts 122°
2026-05-06 08:37 -20.25113 135.32527 39074 ft 554 kts 122°
2026-05-06 08:37 -20.28919 135.39663 39073 ft 554 kts 122°
2026-05-06 08:38 -20.32727 135.46812 39079 ft 554 kts 122°
2026-05-06 08:38 -20.36533 135.53964 39078 ft 555 kts 122°
2026-05-06 08:39 -20.40336 135.61122 39077 ft 555 kts 122°
2026-05-06 08:39 -20.44140 135.68290 39076 ft 555 kts 122°
2026-05-06 08:40 -20.47918 135.75417 39081 ft 556 kts 122°
2026-05-06 08:40 -20.51720 135.82599 39074 ft 556 kts 121°
2026-05-06 08:41 -20.55522 135.89790 39091 ft 556 kts 121°
2026-05-06 08:41 -20.59322 135.96988 39090 ft 557 kts 121°
2026-05-06 08:42 -20.63119 136.04188 39091 ft 557 kts 121°
2026-05-06 08:42 -20.66917 136.11400 39077 ft 557 kts 121°
2026-05-06 08:43 -20.70718 136.18625 39074 ft 558 kts 121°
2026-05-06 08:43 -20.74513 136.25847 39079 ft 558 kts 121°
2026-05-06 08:44 -20.78303 136.33094 39087 ft 558 kts 121°
2026-05-06 08:44 -20.82091 136.40341 39091 ft 558 kts 121°
2026-05-06 08:45 -20.85878 136.47595 39090 ft 559 kts 121°
2026-05-06 08:45 -20.89664 136.54856 39088 ft 559 kts 121°
2026-05-06 08:46 -20.93446 136.62120 39093 ft 559 kts 121°
2026-05-06 08:46 -20.97230 136.69397 39094 ft 560 kts 121°
2026-05-06 08:47 -21.00989 136.76634 39091 ft 560 kts 121°
2026-05-06 08:47 -21.04771 136.83926 39093 ft 560 kts 121°
2026-05-06 08:48 -21.08552 136.91226 39093 ft 561 kts 121°
2026-05-06 08:48 -21.12330 136.98531 39090 ft 561 kts 120°
2026-05-06 08:49 -21.16110 137.05847 39092 ft 561 kts 120°
2026-05-06 08:49 -21.19889 137.13173 39091 ft 562 kts 120°
2026-05-06 08:50 -21.23668 137.20507 39094 ft 562 kts 120°
2026-05-06 08:50 -21.27446 137.27850 39098 ft 563 kts 120°
2026-05-06 08:51 -21.30585 137.33960 39095 ft 563 kts 120°
2026-05-06 08:51 -21.34362 137.41318 39099 ft 563 kts 120°
2026-05-06 08:52 -21.38139 137.48688 39090 ft 564 kts 120°
2026-05-06 08:52 -21.41915 137.56065 39091 ft 564 kts 120°
2026-05-06 08:53 -21.45692 137.63454 39095 ft 564 kts 120°
2026-05-06 08:53 -21.49461 137.70839 39098 ft 564 kts 120°
2026-05-06 08:54 -21.53210 137.78193 39091 ft 565 kts 120°
2026-05-06 08:54 -21.56982 137.85603 39095 ft 565 kts 120°
2026-05-06 08:55 -21.60752 137.93020 39093 ft 566 kts 120°
2026-05-06 08:55 -21.64517 138.00448 39093 ft 566 kts 120°
2026-05-06 08:56 -21.68288 138.07886 39099 ft 566 kts 120°
2026-05-06 08:56 -21.72057 138.15328 39098 ft 567 kts 120°
2026-05-06 08:57 -21.75827 138.22789 39099 ft 567 kts 119°
2026-05-06 08:57 -21.79589 138.30243 39098 ft 567 kts 119°
2026-05-06 08:58 -21.83352 138.37709 39097 ft 568 kts 119°
2026-05-06 08:58 -21.87114 138.45187 39098 ft 568 kts 119°
2026-05-06 08:59 -21.90853 138.52626 39098 ft 568 kts 119°
2026-05-06 08:59 -21.94610 138.60114 39098 ft 568 kts 119°
2026-05-06 09:00 -21.98371 138.67619 39098 ft 569 kts 119°
2026-05-06 09:00 -22.02127 138.75127 39093 ft 569 kts 119°
2026-05-06 09:01 -22.05883 138.82644 39100 ft 570 kts 119°
2026-05-06 09:01 -22.09638 138.90170 39098 ft 570 kts 119°
2026-05-06 09:02 -22.13392 138.97706 39098 ft 570 kts 119°
2026-05-06 09:02 -22.17143 139.05246 39097 ft 571 kts 119°
2026-05-06 09:03 -22.20897 139.12805 39103 ft 571 kts 119°
2026-05-06 09:03 -22.24645 139.20361 39101 ft 571 kts 118°
2026-05-06 09:04 -22.28397 139.27936 39098 ft 572 kts 118°
2026-05-06 09:04 -22.32140 139.35504 39100 ft 572 kts 118°
2026-05-06 09:05 -22.35881 139.43081 39097 ft 572 kts 118°
2026-05-06 09:05 -22.39620 139.50664 39099 ft 572 kts 118°
2026-05-06 09:06 -22.43335 139.58207 39102 ft 572 kts 118°
2026-05-06 09:06 -22.47069 139.65804 39098 ft 572 kts 118°
2026-05-06 09:07 -22.50802 139.73408 39098 ft 572 kts 118°
2026-05-06 09:07 -22.54530 139.81013 39093 ft 573 kts 118°
2026-05-06 09:08 -22.58258 139.88631 39093 ft 573 kts 118°
2026-05-06 09:08 -22.61987 139.96262 39091 ft 573 kts 118°
2026-05-06 09:09 -22.65715 140.03901 39089 ft 573 kts 118°
2026-05-06 09:09 -22.69439 140.11544 39093 ft 574 kts 118°
2026-05-06 09:10 -22.73134 140.19141 39079 ft 574 kts 118°
2026-05-06 09:10 -22.76854 140.26800 39078 ft 574 kts 118°
2026-05-06 09:11 -22.80570 140.34462 39080 ft 575 kts 118°
2026-05-06 09:11 -22.84285 140.42132 39083 ft 575 kts 118°
2026-05-06 09:12 -22.87998 140.49812 39102 ft 575 kts 118°
2026-05-06 09:12 -22.91709 140.57498 39104 ft 575 kts 118°
2026-05-06 09:13 -22.95414 140.65186 39100 ft 575 kts 118°
2026-05-06 09:13 -22.99124 140.72893 39090 ft 576 kts 118°
2026-05-06 09:14 -23.02831 140.80608 39089 ft 576 kts 118°
2026-05-06 09:14 -23.06532 140.88318 39088 ft 576 kts 118°
2026-05-06 09:15 -23.10234 140.96039 39083 ft 576 kts 118°
2026-05-06 09:15 -23.13927 141.03778 39083 ft 576 kts 118°
2026-05-06 09:16 -23.17595 141.11460 39081 ft 576 kts 118°
2026-05-06 09:16 -23.21286 141.19200 39080 ft 577 kts 118°
2026-05-06 09:17 -23.24970 141.26942 39080 ft 577 kts 118°
2026-05-06 09:17 -23.28653 141.34692 39078 ft 577 kts 118°
2026-05-06 09:18 -23.32335 141.42454 39077 ft 577 kts 117°
2026-05-06 09:18 -23.36015 141.50224 39078 ft 577 kts 117°
2026-05-06 09:19 -23.39690 141.57995 39078 ft 578 kts 117°
2026-05-06 09:19 -23.43365 141.65778 39082 ft 578 kts 117°
2026-05-06 09:20 -23.47035 141.73565 39079 ft 578 kts 117°
2026-05-06 09:20 -23.50709 141.81372 39077 ft 579 kts 117°
2026-05-06 09:21 -23.54376 141.89175 39083 ft 579 kts 117°
2026-05-06 09:21 -23.58040 141.96986 39083 ft 579 kts 117°
2026-05-06 09:22 -23.61704 142.04810 39084 ft 579 kts 117°
2026-05-06 09:22 -23.65366 142.12641 39085 ft 580 kts 117°
2026-05-06 09:23 -23.69023 142.20476 39085 ft 580 kts 117°
2026-05-06 09:23 -23.72654 142.28265 39087 ft 580 kts 117°
2026-05-06 09:24 -23.76312 142.36128 39092 ft 580 kts 117°
2026-05-06 09:24 -23.79962 142.43985 39093 ft 580 kts 117°
2026-05-06 09:25 -23.83606 142.51842 39095 ft 580 kts 117°
2026-05-06 09:25 -23.87250 142.59713 39097 ft 580 kts 117°
2026-05-06 09:26 -23.90888 142.67584 39096 ft 580 kts 117°
2026-05-06 09:26 -23.94498 142.75408 39096 ft 580 kts 117°
2026-05-06 09:27 -23.98128 142.83286 39098 ft 580 kts 117°
2026-05-06 09:27 -24.01750 142.91163 39099 ft 580 kts 117°
2026-05-06 09:28 -24.05373 142.99055 39101 ft 580 kts 117°
2026-05-06 09:28 -24.08992 143.06949 39095 ft 580 kts 117°
2026-05-06 09:29 -24.12608 143.14852 39100 ft 580 kts 117°
2026-05-06 09:29 -24.16215 143.22748 39101 ft 580 kts 117°
2026-05-06 09:30 -24.19822 143.30657 39092 ft 580 kts 117°
2026-05-06 09:30 -24.23425 143.38569 39099 ft 580 kts 117°
2026-05-06 09:31 -24.27026 143.46486 39101 ft 580 kts 116°
2026-05-06 09:31 -24.30615 143.54418 39101 ft 581 kts 116°
2026-05-06 09:32 -24.34203 143.62348 39104 ft 581 kts 116°
2026-05-06 09:32 -24.37791 143.70290 39100 ft 581 kts 116°
2026-05-06 09:33 -24.41375 143.78238 39101 ft 581 kts 116°
2026-05-06 09:33 -24.44932 143.86139 39104 ft 581 kts 116°
2026-05-06 09:34 -24.48505 143.94091 39108 ft 581 kts 116°
2026-05-06 09:34 -24.52078 144.02055 39108 ft 581 kts 116°
2026-05-06 09:35 -24.55647 144.10025 39107 ft 581 kts 116°
2026-05-06 09:35 -24.59211 144.18000 39110 ft 582 kts 116°
2026-05-06 09:36 -24.62774 144.25985 39108 ft 582 kts 116°
2026-05-06 09:36 -24.66333 144.33974 39112 ft 582 kts 116°
2026-05-06 09:37 -24.69892 144.41978 39112 ft 583 kts 116°
2026-05-06 09:37 -24.73448 144.49990 39116 ft 583 kts 116°
2026-05-06 09:38 -24.77003 144.58011 39113 ft 583 kts 116°
2026-05-06 09:38 -24.79953 144.64681 39116 ft 583 kts 116°
2026-05-06 09:39 -24.83503 144.72718 39121 ft 583 kts 116°
2026-05-06 09:39 -24.87046 144.80753 39115 ft 584 kts 116°
2026-05-06 09:40 -24.90586 144.88799 39119 ft 584 kts 116°
2026-05-06 09:40 -24.95893 145.00885 39122 ft 584 kts 116°
2026-05-06 09:41 -24.99424 145.08944 39121 ft 584 kts 116°
2026-05-06 09:41 -25.02950 145.17006 39125 ft 584 kts 116°
2026-05-06 09:42 -25.06472 145.25076 39121 ft 584 kts 116°
2026-05-06 09:42 -25.09993 145.33156 39121 ft 584 kts 116°
2026-05-06 09:43 -25.13510 145.41240 39122 ft 584 kts 116°
2026-05-06 09:43 -25.17020 145.49326 39126 ft 584 kts 116°
2026-05-06 09:44 -25.20507 145.57371 39125 ft 585 kts 116°
2026-05-06 09:44 -25.24013 145.65477 39123 ft 585 kts 116°
2026-05-06 09:45 -25.27514 145.73586 39126 ft 585 kts 116°
2026-05-06 09:45 -25.31013 145.81703 39117 ft 585 kts 116°
2026-05-06 09:46 -25.34515 145.89836 39120 ft 586 kts 116°
2026-05-06 09:46 -25.38003 145.97975 39123 ft 586 kts 116°
2026-05-06 09:47 -25.41491 146.06119 39139 ft 586 kts 116°
2026-05-06 09:47 -25.44978 146.14268 39140 ft 586 kts 116°
2026-05-06 09:48 -25.48461 146.22426 39140 ft 586 kts 116°
2026-05-06 09:48 -25.51943 146.30598 39124 ft 586 kts 116°
2026-05-06 09:49 -25.55397 146.38721 39127 ft 587 kts 116°
2026-05-06 09:49 -25.58867 146.46897 39126 ft 587 kts 116°
2026-05-06 09:50 -25.62335 146.55083 39129 ft 587 kts 116°
2026-05-06 09:50 -25.65798 146.63273 39138 ft 587 kts 115°
2026-05-06 09:51 -25.69260 146.71477 39136 ft 587 kts 115°
2026-05-06 09:51 -25.72717 146.79684 39136 ft 587 kts 115°
2026-05-06 09:52 -25.76169 146.87896 39136 ft 587 kts 115°
2026-05-06 09:52 -25.79621 146.96121 39137 ft 588 kts 115°
2026-05-06 09:53 -25.83068 147.04352 39137 ft 587 kts 115°
2026-05-06 09:53 -25.86508 147.12582 39144 ft 587 kts 115°
2026-05-06 09:54 -25.89941 147.20812 39142 ft 587 kts 115°
2026-05-06 09:54 -25.93348 147.28993 39140 ft 587 kts 115°
2026-05-06 09:55 -25.96768 147.37222 39139 ft 587 kts 115°
2026-05-06 09:55 -26.00185 147.45461 39139 ft 587 kts 115°
2026-05-06 09:56 -26.03596 147.53701 39144 ft 586 kts 115°
2026-05-06 09:56 -26.07003 147.61947 39141 ft 586 kts 115°
2026-05-06 09:57 -26.10405 147.70196 39142 ft 586 kts 115°
2026-05-06 09:57 -26.13803 147.78453 39136 ft 587 kts 115°
2026-05-06 09:58 -26.17196 147.86715 39137 ft 587 kts 115°
2026-05-06 09:58 -26.20583 147.94977 39137 ft 587 kts 115°
2026-05-06 09:59 -26.23971 148.03256 39137 ft 587 kts 115°
2026-05-06 09:59 -26.27353 148.11540 39138 ft 587 kts 115°
2026-05-06 10:00 -26.30735 148.19840 39144 ft 587 kts 115°
2026-05-06 10:00 -26.34109 148.28136 39139 ft 588 kts 115°
2026-05-06 10:01 -26.37478 148.36436 39148 ft 588 kts 115°
2026-05-06 10:01 -26.40823 148.44694 39137 ft 588 kts 115°
2026-05-06 10:02 -26.44190 148.53020 39138 ft 589 kts 115°
2026-05-06 10:02 -26.47555 148.61363 39142 ft 589 kts 115°
2026-05-06 10:03 -26.50908 148.69692 39136 ft 588 kts 115°
2026-05-06 10:03 -26.54090 148.78099 39134 ft 588 kts 108°
2026-05-06 10:04 -26.56107 148.86932 39132 ft 586 kts 100°
2026-05-06 10:04 -26.57917 148.95824 39132 ft 586 kts 101°
2026-05-06 10:05 -26.59740 149.04709 39128 ft 587 kts 101°
2026-05-06 10:05 -26.61539 149.13538 39132 ft 586 kts 101°
2026-05-06 10:06 -26.63339 149.22416 39132 ft 586 kts 101°
2026-05-06 10:06 -26.65137 149.31312 39133 ft 586 kts 101°
2026-05-06 10:07 -26.66929 149.40208 39127 ft 586 kts 101°
2026-05-06 10:07 -26.68715 149.49106 39127 ft 587 kts 100°
2026-05-06 10:08 -26.70494 149.58001 39130 ft 587 kts 100°
2026-05-06 10:08 -26.72270 149.66912 39124 ft 587 kts 100°
2026-05-06 10:09 -26.74040 149.75826 39126 ft 587 kts 100°
2026-05-06 10:09 -26.75804 149.84739 39129 ft 587 kts 100°
2026-05-06 10:10 -26.77563 149.93656 39126 ft 587 kts 100°
2026-05-06 10:10 -26.79316 150.02574 39122 ft 587 kts 100°
2026-05-06 10:11 -26.81064 150.11497 39114 ft 587 kts 100°
2026-05-06 10:11 -26.82794 150.20363 39120 ft 586 kts 100°
2026-05-06 10:12 -26.84529 150.29281 39122 ft 586 kts 100°
2026-05-06 10:12 -26.86259 150.38206 39117 ft 586 kts 100°
2026-05-06 10:13 -26.87981 150.47131 39111 ft 586 kts 100°
2026-05-06 10:13 -26.89699 150.56061 39117 ft 586 kts 100°
2026-05-06 10:14 -26.91413 150.64995 39117 ft 587 kts 100°
2026-05-06 10:14 -26.93121 150.73934 39117 ft 587 kts 100°
2026-05-06 10:15 -26.94822 150.82874 39116 ft 587 kts 99°
2026-05-06 10:15 -26.96519 150.91820 39118 ft 587 kts 99°
2026-05-06 10:16 -26.98212 151.00780 39116 ft 587 kts 99°
2026-05-06 10:16 -26.99899 151.09741 39127 ft 587 kts 99°
2026-05-06 10:17 -27.01579 151.18697 39129 ft 587 kts 99°
2026-05-06 10:17 -27.03255 151.27668 39131 ft 587 kts 99°
2026-05-06 10:18 -27.04925 151.36631 39127 ft 587 kts 99°
2026-05-06 10:18 -27.06578 151.45546 39131 ft 587 kts 99°
2026-05-06 10:19 -27.08236 151.54511 39133 ft 587 kts 99°
2026-05-06 10:19 -27.09887 151.63480 39138 ft 587 kts 99°
2026-05-06 10:20 -27.11530 151.72436 39139 ft 585 kts 99°
2026-05-06 10:20 -27.13167 151.81389 39131 ft 585 kts 99°
2026-05-06 10:21 -27.14796 151.90337 39134 ft 585 kts 99°
2026-05-06 10:21 -27.16419 151.99306 39141 ft 588 kts 99°
2026-05-06 10:22 -27.18045 152.08301 39142 ft 587 kts 99°
2026-05-06 10:22 -27.19662 152.17282 39137 ft 587 kts 99°
2026-05-06 10:23 -27.21275 152.26277 39133 ft 588 kts 99°
2026-05-06 10:23 -27.22885 152.35284 39130 ft 587 kts 99°
2026-05-06 10:24 -27.24486 152.44278 39128 ft 587 kts 99°
2026-05-06 10:24 -27.26070 152.53271 39127 ft 587 kts 99°
2026-05-06 10:25 -27.27641 152.62214 39125 ft 587 kts 99°
2026-05-06 10:25 -27.28959 152.69750 39122 ft 586 kts 99°
2026-05-06 10:26 -27.30783 152.80209 39109 ft 586 kts 99°
2026-05-06 10:26 -27.32087 152.87698 39114 ft 587 kts 99°
2026-05-06 10:27 -27.33648 152.96702 39103 ft 586 kts 99°
2026-05-06 10:27 -27.35201 153.05705 39101 ft 586 kts 99°
2026-05-06 10:28 -27.36217 153.10142 39108 ft 586 kts 110°
2026-05-06 10:28 -27.37828 153.14344 39102 ft 585 kts 121°
2026-05-06 10:28 -27.42550 153.21639 39103 ft 574 kts 137°
2026-05-06 10:29 -27.47826 153.28397 39105 ft 575 kts 136°
2026-05-06 10:29 -27.53071 153.35203 39113 ft 575 kts 136°
2026-05-06 10:30 -27.58265 153.42057 39114 ft 575 kts 136°
2026-05-06 10:30 -27.63451 153.48933 39114 ft 575 kts 136°
2026-05-06 10:31 -27.68638 153.55803 39117 ft 575 kts 136°
2026-05-06 10:31 -27.73821 153.62676 39115 ft 575 kts 136°
2026-05-06 10:32 -27.79006 153.69563 39113 ft 575 kts 136°
2026-05-06 10:32 -27.84170 153.76463 39105 ft 577 kts 134°
2026-05-06 10:33 -27.88507 153.84093 39108 ft 585 kts 119°
2026-05-06 10:33 -27.91910 153.92466 39107 ft 587 kts 117°
2026-05-06 10:34 -27.95327 154.00844 39102 ft 587 kts 117°
2026-05-06 10:34 -27.98745 154.09238 39102 ft 587 kts 117°
2026-05-06 10:35 -28.02153 154.17644 39105 ft 588 kts 117°
2026-05-06 10:35 -28.05556 154.26057 39104 ft 588 kts 117°
2026-05-06 10:36 -28.08957 154.34484 39105 ft 588 kts 117°
2026-05-06 10:36 -28.12353 154.42915 39107 ft 588 kts 117°
2026-05-06 10:37 -28.15741 154.51346 39104 ft 588 kts 117°
2026-05-06 10:37 -28.19126 154.59788 39103 ft 588 kts 117°
2026-05-06 10:38 -28.22506 154.68234 39108 ft 588 kts 117°
2026-05-06 10:38 -28.25883 154.76691 39100 ft 588 kts 117°
2026-05-06 10:39 -28.29251 154.85146 39104 ft 588 kts 117°
2026-05-06 10:39 -28.32615 154.93608 39105 ft 588 kts 117°
2026-05-06 10:40 -28.35974 155.02076 39100 ft 588 kts 117°
2026-05-06 10:40 -28.39302 155.10485 39100 ft 588 kts 116°
2026-05-06 10:41 -28.42647 155.18953 39099 ft 588 kts 117°
2026-05-06 10:41 -28.45990 155.27436 39096 ft 588 kts 116°
2026-05-06 10:42 -28.49324 155.35915 39094 ft 587 kts 116°
2026-05-06 10:42 -28.52651 155.44396 39098 ft 587 kts 116°
2026-05-06 10:43 -28.55974 155.52884 39101 ft 587 kts 116°
2026-05-06 10:44 -28.60950 155.65630 39095 ft 587 kts 116°
2026-05-06 10:44 -28.64259 155.74132 39095 ft 587 kts 116°
2026-05-06 10:45 -28.67563 155.82638 39096 ft 587 kts 116°
2026-05-06 10:45 -28.70861 155.91147 39092 ft 587 kts 116°
2026-05-06 10:46 -28.74151 155.99655 39095 ft 587 kts 116°
2026-05-06 10:46 -28.77437 156.08173 39094 ft 587 kts 116°
2026-05-06 10:47 -28.80698 156.16642 39091 ft 587 kts 116°
2026-05-06 10:47 -28.83968 156.25157 39090 ft 586 kts 116°
2026-05-06 10:48 -28.87236 156.33685 39091 ft 586 kts 116°
2026-05-06 10:48 -28.90495 156.42209 39090 ft 586 kts 116°
2026-05-06 10:49 -28.93750 156.50740 39094 ft 586 kts 116°
2026-05-06 10:49 -28.96998 156.59275 39092 ft 586 kts 116°
2026-05-06 10:50 -29.00253 156.67813 39088 ft 585 kts 118°
2026-05-06 10:50 -29.04304 156.75779 39086 ft 579 kts 127°
2026-05-06 10:51 -29.08579 156.83575 39087 ft 579 kts 127°
2026-05-06 10:51 -29.12840 156.91387 39090 ft 579 kts 127°
2026-05-06 10:52 -29.17097 156.99202 39092 ft 579 kts 127°
2026-05-06 10:52 -29.21324 157.06976 39090 ft 578 kts 127°
2026-05-06 10:53 -29.25565 157.14798 39092 ft 578 kts 127°
2026-05-06 10:53 -29.29805 157.22637 39094 ft 578 kts 127°
2026-05-06 10:54 -29.34036 157.30472 39096 ft 578 kts 127°
2026-05-06 10:54 -29.38259 157.38308 39093 ft 577 kts 127°
2026-05-06 10:55 -29.42473 157.46143 39093 ft 577 kts 127°
2026-05-06 10:55 -29.46679 157.53979 39093 ft 576 kts 127°
2026-05-06 10:56 -29.50878 157.61815 39094 ft 576 kts 127°
2026-05-06 10:56 -29.55069 157.69652 39092 ft 576 kts 126°
2026-05-06 10:57 -29.59254 157.77492 39088 ft 575 kts 126°
2026-05-06 10:57 -29.63403 157.85280 39089 ft 575 kts 126°
2026-05-06 10:58 -29.67601 157.93175 39087 ft 575 kts 126°
2026-05-06 10:58 -29.71734 158.00963 39089 ft 574 kts 126°
2026-05-06 10:59 -29.75889 158.08809 39088 ft 574 kts 126°
2026-05-06 10:59 -29.80039 158.16659 39089 ft 573 kts 126°
2026-05-06 11:00 -29.84181 158.24509 39077 ft 573 kts 126°
2026-05-06 11:00 -29.88308 158.32348 39079 ft 572 kts 126°
2026-05-06 11:01 -29.92429 158.40191 39077 ft 572 kts 126°
2026-05-06 11:01 -29.96543 158.48033 39080 ft 571 kts 126°
2026-05-06 11:02 -30.00648 158.55874 39078 ft 571 kts 126°
2026-05-06 11:02 -30.04748 158.63722 39076 ft 570 kts 126°
2026-05-06 11:03 -30.08811 158.71515 39077 ft 570 kts 126°
2026-05-06 11:03 -30.12895 158.79362 39074 ft 569 kts 126°
2026-05-06 11:04 -30.16969 158.87206 39073 ft 569 kts 126°
2026-05-06 11:04 -30.21036 158.95052 39075 ft 569 kts 126°
2026-05-06 11:05 -30.25094 159.02896 39078 ft 568 kts 126°
2026-05-06 11:05 -30.29145 159.10741 39076 ft 568 kts 126°
2026-05-06 11:06 -30.33190 159.18591 39079 ft 567 kts 126°
2026-05-06 11:06 -30.37221 159.26429 39081 ft 566 kts 125°
2026-05-06 11:07 -30.41245 159.34269 39083 ft 566 kts 125°
2026-05-06 11:07 -30.45260 159.42108 39064 ft 565 kts 125°
2026-05-06 11:08 -30.49263 159.49937 39060 ft 565 kts 125°
2026-05-06 11:08 -30.53257 159.57765 39064 ft 564 kts 125°
2026-05-06 11:09 -30.57218 159.65545 39071 ft 563 kts 125°
2026-05-06 11:09 -30.61193 159.73367 39069 ft 562 kts 125°
2026-05-06 11:10 -30.65163 159.81194 39065 ft 562 kts 125°
2026-05-06 11:10 -30.69121 159.89014 39065 ft 561 kts 125°
2026-05-06 11:11 -30.73067 159.96826 39064 ft 561 kts 125°
2026-05-06 11:11 -30.77008 160.04643 39063 ft 560 kts 124°
2026-05-06 11:12 -30.80938 160.12455 39066 ft 559 kts 124°
2026-05-06 11:12 -30.84863 160.20272 39063 ft 559 kts 124°
2026-05-06 11:13 -30.88776 160.28081 39064 ft 558 kts 124°
2026-05-06 11:13 -30.92680 160.35888 39068 ft 557 kts 124°
2026-05-06 11:14 -30.95916 160.42372 39066 ft 557 kts 124°
2026-05-06 11:14 -30.99805 160.50175 39061 ft 556 kts 124°
2026-05-06 11:15 -31.03683 160.57976 39061 ft 556 kts 124°
2026-05-06 11:15 -31.07552 160.65773 39067 ft 555 kts 124°
2026-05-06 11:16 -31.11408 160.73558 39066 ft 554 kts 124°
2026-05-06 11:16 -31.15256 160.81345 39063 ft 553 kts 124°
2026-05-06 11:17 -31.19096 160.89130 39064 ft 552 kts 124°
2026-05-06 11:17 -31.22898 160.96854 39061 ft 551 kts 124°
2026-05-06 11:18 -31.26736 161.04667 39062 ft 551 kts 123°
2026-05-06 11:18 -31.30544 161.12436 39066 ft 550 kts 123°
2026-05-06 11:19 -31.34314 161.20141 39065 ft 549 kts 123°
2026-05-06 11:19 -31.38095 161.27887 39065 ft 548 kts 123°
2026-05-06 11:20 -31.41870 161.35633 39064 ft 547 kts 123°
2026-05-06 11:20 -31.45633 161.43374 39063 ft 546 kts 123°
2026-05-06 11:21 -31.49390 161.51115 39065 ft 546 kts 123°
2026-05-06 11:21 -31.53132 161.58841 39066 ft 545 kts 123°
2026-05-06 11:22 -31.56865 161.66567 39070 ft 544 kts 123°
2026-05-06 11:22 -31.60590 161.74289 39068 ft 543 kts 123°
2026-05-06 11:23 -31.64308 161.82014 39069 ft 543 kts 123°
2026-05-06 11:23 -31.68015 161.89732 39067 ft 542 kts 123°
2026-05-06 11:24 -31.71713 161.97447 39067 ft 542 kts 123°
2026-05-06 11:24 -31.75401 162.05157 39063 ft 541 kts 123°
2026-05-06 11:25 -31.79060 162.12822 39071 ft 540 kts 123°
2026-05-06 11:25 -31.82735 162.20536 39072 ft 540 kts 122°
2026-05-06 11:26 -31.86399 162.28244 39068 ft 539 kts 122°
2026-05-06 11:26 -31.90049 162.35936 39072 ft 538 kts 122°
2026-05-06 11:27 -31.93694 162.43636 39069 ft 538 kts 122°
2026-05-06 11:27 -31.97328 162.51327 39076 ft 537 kts 122°
2026-05-06 11:28 -32.00950 162.59009 39066 ft 536 kts 122°
2026-05-06 11:28 -32.04566 162.66694 39077 ft 536 kts 122°
2026-05-06 11:29 -32.08177 162.74382 39071 ft 535 kts 122°
2026-05-06 11:29 -32.11780 162.82062 39077 ft 535 kts 122°
2026-05-06 11:30 -32.15352 162.89689 39075 ft 534 kts 122°
2026-05-06 11:30 -32.18941 162.97366 39074 ft 534 kts 122°
2026-05-06 11:31 -32.22437 163.05103 39079 ft 533 kts 121°
2026-05-06 11:31 -32.26026 163.12775 39082 ft 533 kts 122°
2026-05-06 11:32 -32.29613 163.20443 39078 ft 533 kts 122°
2026-05-06 11:32 -32.33177 163.28124 39084 ft 533 kts 122°
2026-05-06 11:33 -32.36728 163.35808 39080 ft 532 kts 122°
2026-05-06 11:33 -32.40272 163.43492 39078 ft 532 kts 121°
2026-05-06 11:34 -32.43806 163.51178 39090 ft 531 kts 121°
2026-05-06 11:34 -32.47331 163.58866 39077 ft 531 kts 121°
2026-05-06 11:35 -32.50848 163.66552 39094 ft 530 kts 121°
2026-05-06 11:35 -32.54356 163.74235 39079 ft 530 kts 121°
2026-05-06 11:36 -32.57857 163.81920 39076 ft 530 kts 121°
2026-05-06 11:36 -32.61349 163.89600 39073 ft 529 kts 121°
2026-05-06 11:37 -32.64837 163.97287 39100 ft 528 kts 121°
2026-05-06 11:37 -32.68312 164.04963 39100 ft 528 kts 121°
2026-05-06 11:38 -32.71779 164.12637 39108 ft 527 kts 121°
2026-05-06 11:38 -32.75237 164.20307 39087 ft 526 kts 121°
2026-05-06 11:39 -32.78666 164.27927 39080 ft 526 kts 121°
2026-05-06 11:39 -32.82106 164.35592 39087 ft 525 kts 121°
2026-05-06 11:40 -32.85538 164.43254 39088 ft 525 kts 121°
2026-05-06 11:40 -32.88966 164.50921 39096 ft 525 kts 121°
2026-05-06 11:41 -32.92390 164.58598 39090 ft 525 kts 121°
2026-05-06 11:41 -32.95807 164.66273 39094 ft 525 kts 121°
2026-05-06 11:42 -32.99222 164.73962 39098 ft 525 kts 121°
2026-05-06 11:42 -33.02628 164.81649 39100 ft 525 kts 121°
2026-05-06 11:43 -33.06033 164.89346 39096 ft 525 kts 121°
2026-05-06 11:43 -33.09406 164.96992 39104 ft 525 kts 121°
2026-05-06 11:44 -33.14498 165.08562 39106 ft 525 kts 121°
2026-05-06 11:44 -33.17885 165.16279 39113 ft 524 kts 120°
2026-05-06 11:45 -33.21262 165.23989 39115 ft 524 kts 120°
2026-05-06 11:45 -33.24634 165.31705 39115 ft 524 kts 120°
2026-05-06 11:46 -33.27997 165.39419 39113 ft 523 kts 120°
2026-05-06 11:46 -33.31355 165.47137 39114 ft 523 kts 120°
2026-05-06 11:47 -33.34700 165.54845 39117 ft 522 kts 120°
2026-05-06 11:47 -33.38040 165.62554 39116 ft 522 kts 120°
2026-05-06 11:48 -33.41371 165.70261 39123 ft 521 kts 120°
2026-05-06 11:48 -33.44694 165.77966 39121 ft 521 kts 120°
2026-05-06 11:49 -33.48011 165.85675 39125 ft 520 kts 120°
2026-05-06 11:49 -33.51324 165.93390 39122 ft 520 kts 120°
2026-05-06 11:50 -33.54605 166.01048 39125 ft 520 kts 120°
2026-05-06 11:50 -33.57901 166.08760 39130 ft 519 kts 120°
2026-05-06 11:51 -33.61192 166.16475 39134 ft 519 kts 120°
2026-05-06 11:51 -33.64476 166.24190 39133 ft 519 kts 120°
2026-05-06 11:52 -33.67755 166.31912 39131 ft 519 kts 120°
2026-05-06 11:52 -33.71027 166.39635 39139 ft 519 kts 120°
2026-05-06 11:53 -33.74293 166.47360 39140 ft 518 kts 120°
2026-05-06 11:53 -33.77555 166.55094 39139 ft 518 kts 119°
2026-05-06 11:54 -33.80810 166.62826 39143 ft 518 kts 119°
2026-05-06 11:54 -33.84062 166.70571 39143 ft 518 kts 119°
2026-05-06 11:55 -33.87283 166.78259 39150 ft 517 kts 119°
2026-05-06 11:55 -33.90518 166.85997 39160 ft 517 kts 119°
2026-05-06 11:56 -33.93743 166.93728 39160 ft 516 kts 119°
2026-05-06 11:56 -33.96956 167.01449 39163 ft 515 kts 119°
2026-05-06 11:57 -34.00158 167.09161 39164 ft 514 kts 119°
2026-05-06 11:57 -34.03350 167.16866 39165 ft 513 kts 119°
2026-05-06 11:58 -34.06534 167.24568 39164 ft 513 kts 118°
2026-05-06 11:58 -34.09710 167.32267 39168 ft 512 kts 118°
2026-05-06 11:59 -34.12878 167.39967 39167 ft 512 kts 118°
2026-05-06 11:59 -34.16038 167.47663 39167 ft 512 kts 118°
2026-05-06 12:00 -34.19196 167.55373 39165 ft 512 kts 118°
2026-05-06 12:00 -34.22349 167.63087 39159 ft 512 kts 118°
2026-05-06 12:01 -34.25481 167.70769 39166 ft 513 kts 118°
2026-05-06 12:01 -34.28102 167.77210 39168 ft 513 kts 118°
2026-05-06 12:02 -34.31252 167.84968 39169 ft 514 kts 118°
2026-05-06 12:02 -34.34399 167.92736 39175 ft 515 kts 118°
2026-05-06 12:03 -34.37547 168.00526 39178 ft 515 kts 118°
2026-05-06 12:03 -34.40687 168.08313 39181 ft 515 kts 118°
2026-05-06 12:04 -34.43824 168.16109 39184 ft 515 kts 118°
2026-05-06 12:04 -34.46951 168.23901 39190 ft 514 kts 118°
2026-05-06 12:05 -34.50074 168.31702 39195 ft 514 kts 118°
2026-05-06 12:05 -34.53187 168.39493 39198 ft 513 kts 118°
2026-05-06 12:06 -34.56290 168.47277 39199 ft 512 kts 118°
2026-05-06 12:06 -34.59381 168.55051 39198 ft 511 kts 118°
2026-05-06 12:07 -34.62459 168.62811 39203 ft 510 kts 118°
2026-05-06 12:07 -34.65530 168.70569 39199 ft 509 kts 118°
2026-05-06 12:08 -34.68589 168.78317 39201 ft 509 kts 118°
2026-05-06 12:08 -34.71643 168.86070 39197 ft 508 kts 118°
2026-05-06 12:09 -34.74690 168.93820 39197 ft 508 kts 117°
2026-05-06 12:09 -34.77730 169.01574 39198 ft 508 kts 117°
2026-05-06 12:10 -34.80765 169.09332 39200 ft 508 kts 117°
2026-05-06 12:10 -34.83795 169.17096 39204 ft 508 kts 117°
2026-05-06 12:11 -34.86798 169.24810 39206 ft 508 kts 117°
2026-05-06 12:11 -34.89819 169.32588 39208 ft 508 kts 117°
2026-05-06 12:12 -34.92836 169.40373 39208 ft 508 kts 117°
2026-05-06 12:12 -34.95847 169.48162 39212 ft 508 kts 117°
2026-05-06 12:13 -34.98849 169.55946 39216 ft 507 kts 117°
2026-05-06 12:13 -35.01829 169.63693 39216 ft 507 kts 117°
2026-05-06 12:14 -35.04818 169.71480 39219 ft 507 kts 117°
2026-05-06 12:14 -35.07801 169.79273 39225 ft 506 kts 117°
2026-05-06 12:15 -35.10779 169.87068 39227 ft 506 kts 117°
2026-05-06 12:15 -35.13747 169.94857 39226 ft 505 kts 117°
2026-05-06 12:16 -35.16705 170.02637 39228 ft 505 kts 117°
2026-05-06 12:16 -35.19660 170.10429 39232 ft 504 kts 117°
2026-05-06 12:17 -35.22600 170.18200 39232 ft 503 kts 117°
2026-05-06 12:17 -35.25532 170.25969 39236 ft 502 kts 117°
2026-05-06 12:18 -35.28434 170.33678 39238 ft 502 kts 117°
2026-05-06 12:18 -35.31346 170.41430 39239 ft 501 kts 116°
2026-05-06 12:19 -35.34249 170.49181 39239 ft 500 kts 116°
2026-05-06 12:19 -35.37142 170.56920 39239 ft 500 kts 116°
2026-05-06 12:20 -35.40031 170.64668 39242 ft 499 kts 116°
2026-05-06 12:20 -35.42910 170.72407 39242 ft 499 kts 116°
2026-05-06 12:21 -35.45783 170.80138 39242 ft 498 kts 116°
2026-05-06 12:21 -35.48652 170.87874 39248 ft 498 kts 116°
2026-05-06 12:22 -35.51518 170.95619 39247 ft 498 kts 116°
2026-05-06 12:22 -35.54376 171.03362 39250 ft 498 kts 116°
2026-05-06 12:23 -35.57159 171.11147 39247 ft 498 kts 113°
2026-05-06 12:23 -35.59711 171.18999 39252 ft 498 kts 114°
2026-05-06 12:24 -35.62360 171.26868 39255 ft 498 kts 114°
2026-05-06 12:24 -35.64982 171.34741 39257 ft 498 kts 114°
2026-05-06 12:25 -35.67588 171.42629 39260 ft 497 kts 114°
2026-05-06 12:25 -35.70182 171.50508 39261 ft 497 kts 114°
2026-05-06 12:26 -35.72772 171.58394 39266 ft 497 kts 114°
2026-05-06 12:26 -35.75354 171.66275 39268 ft 496 kts 114°
2026-05-06 12:27 -35.77929 171.74158 39265 ft 496 kts 113°
2026-05-06 12:27 -35.80496 171.82037 39275 ft 495 kts 113°
2026-05-06 12:28 -35.83040 171.89864 39279 ft 495 kts 113°
2026-05-06 12:28 -35.85595 171.97747 39278 ft 495 kts 113°
2026-05-06 12:29 -35.88139 172.05616 39281 ft 494 kts 113°
2026-05-06 12:29 -35.90678 172.13492 39280 ft 494 kts 113°
2026-05-06 12:30 -35.93211 172.21368 39283 ft 494 kts 113°
2026-05-06 12:30 -35.95739 172.29253 39281 ft 494 kts 113°
2026-05-06 12:31 -35.98259 172.37130 39287 ft 493 kts 113°
2026-05-06 12:31 -36.00775 172.45020 39276 ft 492 kts 113°
2026-05-06 12:32 -36.02021 172.48936 39060 ft 489 kts 113°
2026-05-06 12:32 -36.03261 172.52838 38580 ft 486 kts 113°
2026-05-06 12:32 -36.04494 172.56718 37898 ft 487 kts 113°
2026-05-06 12:32 -36.05730 172.60613 37158 ft 487 kts 112°
2026-05-06 12:33 -36.06964 172.64510 36405 ft 488 kts 112°
2026-05-06 12:33 -36.08204 172.68428 35638 ft 489 kts 112°
2026-05-06 12:33 -36.09441 172.72345 34876 ft 490 kts 112°
2026-05-06 12:33 -36.10682 172.76281 34059 ft 491 kts 111°
2026-05-06 12:34 -36.11907 172.80171 33164 ft 493 kts 111°
2026-05-06 12:34 -36.13151 172.84129 32234 ft 494 kts 111°
2026-05-06 12:34 -36.14395 172.88094 31367 ft 495 kts 111°
2026-05-06 12:34 -36.15636 172.92052 30741 ft 491 kts 111°
2026-05-06 12:35 -36.16861 172.95965 30168 ft 485 kts 111°
2026-05-06 12:35 -36.18074 172.99844 29531 ft 480 kts 111°
2026-05-06 12:35 -36.19273 173.03683 28898 ft 475 kts 111°
2026-05-06 12:35 -36.20458 173.07481 28268 ft 471 kts 111°
2026-05-06 12:36 -36.21632 173.11251 27652 ft 467 kts 111°
2026-05-06 12:36 -36.22793 173.14981 27033 ft 463 kts 111°
2026-05-06 12:36 -36.23946 173.18690 26429 ft 458 kts 111°
2026-05-06 12:36 -36.25085 173.22358 25840 ft 455 kts 111°
2026-05-06 12:37 -36.26213 173.25997 25244 ft 451 kts 111°
2026-05-06 12:37 -36.27333 173.29614 24660 ft 447 kts 111°
2026-05-06 12:37 -36.28442 173.33199 24073 ft 444 kts 110°
2026-05-06 12:37 -36.29542 173.36763 23438 ft 440 kts 110°
2026-05-06 12:38 -36.30629 173.40288 22804 ft 436 kts 110°
2026-05-06 12:38 -36.31706 173.43782 22162 ft 431 kts 110°
2026-05-06 12:38 -36.32769 173.47237 21531 ft 427 kts 110°
2026-05-06 12:38 -36.33824 173.50667 20873 ft 423 kts 110°
2026-05-06 12:39 -36.34866 173.54062 20254 ft 419 kts 110°
2026-05-06 12:39 -36.35901 173.57435 19614 ft 416 kts 110°
2026-05-06 12:39 -36.36923 173.60769 19014 ft 411 kts 110°
2026-05-06 12:39 -36.37935 173.64069 18366 ft 407 kts 110°
2026-05-06 12:40 -36.38989 173.67315 17653 ft 404 kts 115°
2026-05-06 12:40 -36.40390 173.70251 17010 ft 399 kts 125°
2026-05-06 12:40 -36.42200 173.72898 16336 ft 395 kts 135°
2026-05-06 12:40 -36.44176 173.75252 15668 ft 391 kts 136°
2026-05-06 12:41 -36.46099 173.77556 15027 ft 388 kts 135°
2026-05-06 12:41 -36.48022 173.79880 14396 ft 384 kts 135°
2026-05-06 12:41 -36.49922 173.82187 13711 ft 380 kts 135°
2026-05-06 12:41 -36.51795 173.84466 13039 ft 375 kts 134°
2026-05-06 12:42 -36.53649 173.86727 12366 ft 371 kts 134°
2026-05-06 12:42 -36.55481 173.88962 11708 ft 367 kts 134°
2026-05-06 12:42 -36.57296 173.91176 11061 ft 363 kts 134°
2026-05-06 12:42 -36.59059 173.93327 10706 ft 345 kts 134°
2026-05-06 12:43 -36.60740 173.95379 10150 ft 335 kts 134°
2026-05-06 12:43 -36.62360 173.97359 9859 ft 316 kts 134°
2026-05-06 12:43 -36.63880 173.99220 9513 ft 299 kts 134°
2026-05-06 12:43 -36.65353 174.01027 8865 ft 296 kts 133°
2026-05-06 12:44 -36.66813 174.02818 8218 ft 295 kts 133°
2026-05-06 12:44 -36.68265 174.04601 7679 ft 292 kts 133°
2026-05-06 12:44 -36.69712 174.06378 7126 ft 291 kts 133°
2026-05-06 12:44 -36.71149 174.08141 6570 ft 289 kts 133°
2026-05-06 12:45 -36.72577 174.09893 6003 ft 287 kts 133°
2026-05-06 12:45 -36.73992 174.11632 5408 ft 285 kts 133°
2026-05-06 12:45 -36.76793 174.15072 4282 ft 279 kts 132°
2026-05-06 12:46 -36.78168 174.16758 3718 ft 276 kts 131°
2026-05-06 12:46 -36.79528 174.18430 3220 ft 272 kts 131°
2026-05-06 12:46 -36.80858 174.20065 3042 ft 273 kts 131°
2026-05-06 12:46 -36.82200 174.21721 2982 ft 272 kts 130°
2026-05-06 12:47 -36.83567 174.23412 2983 ft 273 kts 130°
2026-05-06 12:47 -36.84898 174.25056 2980 ft 272 kts 130°
2026-05-06 12:47 -36.86248 174.26722 2984 ft 273 kts 130°
2026-05-06 12:47 -36.87595 174.28387 2996 ft 272 kts 130°
2026-05-06 12:48 -36.88945 174.30055 2979 ft 272 kts 130°
2026-05-06 12:48 -36.90297 174.31725 2997 ft 274 kts 130°
2026-05-06 12:48 -36.91653 174.33400 2981 ft 274 kts 130°
2026-05-06 12:48 -36.93000 174.35066 2979 ft 272 kts 130°
2026-05-06 12:49 -36.94344 174.36728 2983 ft 267 kts 130°
2026-05-06 12:49 -36.95615 174.38292 2988 ft 246 kts 130°
2026-05-06 12:49 -36.96786 174.39732 3000 ft 227 kts 129°
2026-05-06 12:49 -36.97870 174.41068 2984 ft 210 kts 129°
2026-05-06 12:50 -36.98879 174.42318 3005 ft 209 kts 128°
2026-05-06 12:50 -36.99897 174.43594 2985 ft 205 kts 128°
2026-05-06 12:50 -37.00895 174.44846 2984 ft 203 kts 128°
2026-05-06 12:50 -37.01896 174.46096 2987 ft 203 kts 128°
2026-05-06 12:51 -37.02900 174.47345 2984 ft 203 kts 128°
2026-05-06 12:51 -37.03568 174.48175 2985 ft 205 kts 128°
2026-05-06 12:51 -37.04581 174.49438 2987 ft 204 kts 128°
2026-05-06 12:51 -37.05589 174.50691 2981 ft 205 kts 129°
2026-05-06 12:52 -37.06601 174.51949 2983 ft 205 kts 128°
2026-05-06 12:52 -37.07550 174.53263 2976 ft 198 kts 114°
2026-05-06 12:52 -37.07802 174.54852 3009 ft 184 kts 73°
2026-05-06 12:52 -37.07431 174.56327 3009 ft 176 kts 62°
2026-05-06 12:53 -37.06955 174.57772 2985 ft 179 kts 61°
2026-05-06 12:53 -37.06541 174.59193 2964 ft 179 kts 65°
2026-05-06 12:53 -37.06143 174.60677 2767 ft 177 kts 64°
2026-05-06 12:53 -37.05758 174.62075 2528 ft 164 kts 65°
2026-05-06 12:54 -37.05413 174.63344 2321 ft 145 kts 63°
2026-05-06 12:54 -37.05104 174.64455 2135 ft 140 kts 62°
2026-05-06 12:54 -37.04784 174.65609 1944 ft 139 kts 64°
2026-05-06 12:54 -37.04464 174.66777 1748 ft 142 kts 65°
2026-05-06 12:55 -37.04147 174.67926 1569 ft 142 kts 65°
2026-05-06 12:55 -37.03828 174.69087 1374 ft 140 kts 65°
2026-05-06 12:55 -37.03509 174.70240 1182 ft 140 kts 65°
2026-05-06 12:55 -37.03187 174.71405 997 ft 143 kts 67°
2026-05-06 12:56 -37.02868 174.72566 808 ft 141 kts 70°
2026-05-06 12:56 -37.02539 174.73765 602 ft 145 kts 69°
2026-05-06 12:56 -37.02232 174.74891 405 ft 137 kts 69°
2026-05-06 12:56 -37.01925 174.76036 230 ft 144 kts 68°
2026-05-06 12:57 -37.01597 174.77212 51 ft 141 kts 69°
2026-05-06 12:57 -37.01301 174.78269 31 ft 104 kts 69°
2026-05-06 12:57 -37.01115 174.78876 31 ft 58 kts 57°
2026-05-06 12:57 -37.00933 174.79080 31 ft 14 kts
2026-05-06 12:58 -37.00914 174.78976 31 ft 18 kts 244°
2026-05-06 12:58 -37.00951 174.78842 31 ft 15 kts 248°
2026-05-06 12:58 -37.00985 174.78730 31 ft 12 kts 252°
2026-05-06 12:58 -37.01014 174.78616 31 ft 14 kts 251°
2026-05-06 12:59 -37.01044 174.78507 31 ft 12 kts 251°
2026-05-06 12:59 -37.01071 174.78412 31 ft 12 kts 250°
2026-05-06 12:59 -37.01080 174.78322 31 ft 9 kts 287°
2026-05-06 12:59 -37.01015 174.78252 31 ft 14 kts 330°
2026-05-06 13:00 -37.00947 174.78179 31 ft 15 kts 305°
2026-05-06 13:00 -37.00889 174.78069 31 ft 15 kts 307°
2026-05-06 13:00 -37.00786 174.78012 31 ft 17 kts 348°
2026-05-06 13:00 -37.00685 174.78024 31 ft 16 kts 20°
2026-05-06 13:01 -37.00606 174.77992 30 ft 10 kts 307°
2026-05-06 13:01 -37.00570 174.77933 31 ft 7 kts 314°
2026-05-06 13:01 -37.00535 174.77908 31 ft 5 kts 334°
2026-05-06 13:01 -37.00506 174.77896 31 ft 2 kts 341°
2026-05-06 13:02 -37.00501 174.77894 31 ft 2 kts 341°
2026-05-06 13:02 -37.00497 174.77892 31 ft 0 kts 341°
2026-05-06 13:02 -37.00496 174.77892 31 ft 0 kts 341°